Time,TemperatureF,DewpointF,PressureIn,WindDirection,WindDirectionDegrees,WindSpeedMPH,WindSpeedGustMPH,Humidity,HourlyPrecipIn,Conditions,Clouds,dailyrainin,SoftwareType,DateUTC
2013-03-10 00:02:00,66.4,62.7,29.57,SE,133,5.0,6.0,88,0.00,,,0.00,Wunderground v.1.15,2013-03-10 06:02:00,
2013-03-10 00:04:00,66.4,62.7,29.57,SE,128,5.0,10.0,88,0.00,,,0.00,Wunderground v.1.15,2013-03-10 06:04:00,
2013-03-10 00:07:00,66.3,62.6,29.57,SSE,151,6.0,10.0,88,0.00,,,0.00,Wunderground v.1.15,2013-03-10 06:07:00,
2013-03-10 00:09:00,66.3,62.6,29.57,SSE,151,5.0,10.0,88,0.00,,,0.00,Wunderground v.1.15,2013-03-10 06:09:00,
2013-03-10 00:11:00,66.3,62.6,29.57,SSW,205,5.0,5.0,88,0.00,,,0.00,Wunderground v.1.15,2013-03-10 06:11:00,
2013-03-10 00:12:00,66.3,63.0,29.57,SSW,199,5.0,8.0,89,0.00,,,0.00,Wunderground v.1.15,2013-03-10 06:12:00,
2013-03-10 00:14:00,66.3,62.6,29.57,ESE,123,4.0,8.0,88,0.00,,,0.00,Wunderground v.1.15,2013-03-10 06:14:00,
2013-03-10 00:18:00,66.4,62.7,29.58,SE,134,3.0,8.0,88,0.00,,,0.00,Wunderground v.1.15,2013-03-10 06:18:00,
2013-03-10 00:20:00,66.4,62.7,29.58,SE,136,3.0,8.0,88,0.00,,,0.00,Wunderground v.1.15,2013-03-10 06:20:00,
2013-03-10 00:21:00,66.4,62.7,29.58,SE,136,3.0,3.0,88,0.00,,,0.00,Wunderground v.1.15,2013-03-10 06:21:00,
2013-03-10 00:26:00,66.4,62.7,29.58,NNW,336,2.0,5.0,88,0.00,,,0.00,Wunderground v.1.15,2013-03-10 06:26:00,
2013-03-10 00:27:00,66.4,62.7,29.58,NNW,335,2.0,5.0,88,0.00,,,0.00,Wunderground v.1.15,2013-03-10 06:27:00,
2013-03-10 00:32:00,66.4,62.7,29.60,NNW,337,3.0,3.0,88,0.00,,,0.00,Wunderground v.1.15,2013-03-10 06:32:00,
2013-03-10 00:33:00,66.4,62.7,29.60,NE,35,4.0,7.0,88,0.00,,,0.00,Wunderground v.1.15,2013-03-10 06:33:00,
2013-03-10 00:37:00,66.4,62.7,29.60,North,3,3.0,7.0,88,0.00,,,0.00,Wunderground v.1.15,2013-03-10 06:37:00,
2013-03-10 00:38:00,66.4,62.7,29.60,North,3,3.0,7.0,88,0.00,,,0.00,Wunderground v.1.15,2013-03-10 06:38:00,
2013-03-10 00:39:00,66.4,62.7,29.60,North,3,3.0,7.0,88,0.00,,,0.00,Wunderground v.1.15,2013-03-10 06:39:00,
2013-03-10 00:41:00,66.4,62.7,29.60,North,3,3.0,3.0,88,0.00,,,0.00,Wunderground v.1.15,2013-03-10 06:41:00,
2013-03-10 00:45:00,66.4,62.7,29.60,North,3,1.0,3.0,88,0.00,,,0.00,Wunderground v.1.15,2013-03-10 06:45:00,
2013-03-10 00:46:00,66.4,62.7,29.59,North,3,1.0,3.0,88,0.00,,,0.00,Wunderground v.1.15,2013-03-10 06:46:00,
2013-03-10 00:48:00,66.4,62.7,29.59,North,3,1.0,3.0,88,0.00,,,0.00,Wunderground v.1.15,2013-03-10 06:48:00,
2013-03-10 00:50:00,66.3,62.6,29.59,ENE,75,1.0,3.0,88,0.00,,,0.00,Wunderground v.1.15,2013-03-10 06:50:00,
2013-03-10 00:51:00,66.3,62.6,29.59,ENE,75,1.0,1.0,88,0.00,,,0.00,Wunderground v.1.15,2013-03-10 06:51:00,
2013-03-10 00:54:00,66.3,62.6,29.59,East,89,1.0,3.0,88,0.00,,,0.00,Wunderground v.1.15,2013-03-10 06:54:00,
2013-03-10 00:56:00,66.3,62.6,29.59,East,89,1.0,3.0,88,0.00,,,0.00,Wunderground v.1.15,2013-03-10 06:56:00,
2013-03-10 01:01:00,66.1,62.8,29.60,East,88,1.0,5.0,89,0.00,,,0.00,Wunderground v.1.15,2013-03-10 07:01:00,
2013-03-10 01:03:00,66.1,62.8,29.60,WNW,289,1.0,6.0,89,0.00,,,0.00,Wunderground v.1.15,2013-03-10 07:03:00,
2013-03-10 01:04:00,66.1,62.8,29.60,WNW,287,2.0,9.0,89,0.00,,,0.00,Wunderground v.1.15,2013-03-10 07:04:00,
2013-03-10 01:06:00,65.8,62.1,29.60,WNW,296,4.0,13.0,88,0.24,,,0.02,Wunderground v.1.15,2013-03-10 07:06:00,
2013-03-10 01:09:00,65.3,62.0,29.60,NW,306,8.0,13.0,89,2.59,,,0.09,Wunderground v.1.15,2013-03-10 07:09:00,
2013-03-10 01:11:00,64.3,60.7,29.60,West,272,10.0,22.0,88,3.16,,,0.20,Wunderground v.1.15,2013-03-10 07:11:00,
2013-03-10 01:12:00,63.1,59.8,29.60,WNW,295,13.0,22.0,89,2.85,,,0.31,Wunderground v.1.15,2013-03-10 07:12:00,
2013-03-10 01:13:00,62.6,59.3,29.60,NNW,332,14.0,22.0,89,6.13,,,0.36,Wunderground v.1.15,2013-03-10 07:13:00,
2013-03-10 01:15:00,62.1,59.1,29.60,NW,325,14.0,22.0,90,4.97,,,0.42,Wunderground v.1.15,2013-03-10 07:15:00,
2013-03-10 01:17:00,61.3,58.7,29.68,NNE,32,13.0,22.0,91,3.31,,,0.56,Wunderground v.1.15,2013-03-10 07:17:00,
2013-03-10 01:18:00,61.0,58.4,29.68,NE,44,13.0,22.0,91,1.61,,,0.59,Wunderground v.1.15,2013-03-10 07:18:00,
2013-03-10 01:21:00,60.9,58.6,29.68,NNE,30,13.0,13.0,92,1.75,,,0.63,Wunderground v.1.15,2013-03-10 07:21:00,
2013-03-10 01:23:00,60.7,58.4,29.68,NNW,340,10.0,13.0,92,0.32,,,0.65,Wunderground v.1.15,2013-03-10 07:23:00,
2013-03-10 01:25:00,60.7,58.4,29.68,NNE,13,10.0,13.0,92,0.21,,,0.65,Wunderground v.1.15,2013-03-10 07:25:00,
2013-03-10 01:26:00,60.5,58.2,29.68,NE,34,9.0,13.0,92,0.16,,,0.66,Wunderground v.1.15,2013-03-10 07:26:00,
2013-03-10 01:29:00,60.5,58.2,29.68,NNW,346,8.0,13.0,92,0.16,,,0.66,Wunderground v.1.15,2013-03-10 07:29:00,
2013-03-10 01:30:00,60.5,58.5,29.68,NNW,347,7.0,8.0,93,0.18,,,0.67,Wunderground v.1.15,2013-03-10 07:30:00,
2013-03-10 01:31:00,60.5,58.5,29.63,North,350,7.0,10.0,93,0.18,,,0.67,Wunderground v.1.15,2013-03-10 07:31:00,
2013-03-10 01:32:00,60.4,58.4,29.63,North,354,7.0,10.0,93,0.17,,,0.68,Wunderground v.1.15,2013-03-10 07:32:00,
2013-03-10 01:36:00,60.4,58.4,29.63,North,350,7.0,10.0,93,0.15,,,0.68,Wunderground v.1.15,2013-03-10 07:36:00,
2013-03-10 01:37:00,60.4,58.4,29.63,NNW,342,6.0,10.0,93,0.12,,,0.68,Wunderground v.1.15,2013-03-10 07:37:00,
2013-03-10 01:43:00,60.7,59.0,29.63,WNW,301,5.0,6.0,94,0.05,,,0.68,Wunderground v.1.15,2013-03-10 07:43:00,
2013-03-10 01:45:00,60.7,59.0,29.63,West,272,5.0,6.0,94,0.05,,,0.68,Wunderground v.1.15,2013-03-10 07:45:00,
2013-03-10 01:47:00,60.9,59.2,29.65,WNW,301,5.0,6.0,94,0.04,,,0.68,Wunderground v.1.15,2013-03-10 07:47:00,
2013-03-10 01:50:00,61.0,59.3,29.65,NW,326,5.0,9.0,94,0.00,,,0.68,Wunderground v.1.15,2013-03-10 07:50:00,
2013-03-10 01:51:00,61.0,59.3,29.65,North,350,5.0,6.0,94,0.00,,,0.68,Wunderground v.1.15,2013-03-10 07:51:00,
2013-03-10 01:54:00,61.2,59.5,29.65,NNW,347,5.0,7.0,94,0.00,,,0.68,Wunderground v.1.15,2013-03-10 07:54:00,
2013-03-10 01:56:00,61.2,59.5,29.65,NW,326,6.0,8.0,94,0.00,,,0.68,Wunderground v.1.15,2013-03-10 07:56:00,
2013-03-10 01:57:00,61.2,59.5,29.65,NNW,342,6.0,8.0,94,0.00,,,0.68,Wunderground v.1.15,2013-03-10 07:57:00,
2013-03-10 03:02:00,61.2,59.5,29.64,NNW,335,5.0,7.0,94,0.00,,,0.68,Wunderground v.1.15,2013-03-10 08:02:00,
2013-03-10 03:03:00,61.0,59.3,29.64,NW,323,6.0,7.0,94,0.00,,,0.68,Wunderground v.1.15,2013-03-10 08:03:00,
2013-03-10 03:04:00,61.0,59.3,29.64,NNW,336,5.0,7.0,94,0.00,,,0.68,Wunderground v.1.15,2013-03-10 08:04:00,
2013-03-10 03:05:00,61.0,59.3,29.64,NNE,28,5.0,7.0,94,0.00,,,0.68,Wunderground v.1.15,2013-03-10 08:05:00,
2013-03-10 03:10:00,60.9,59.2,29.64,NW,320,5.0,11.0,94,0.00,,,0.68,Wunderground v.1.15,2013-03-10 08:10:00,
2013-03-10 03:15:00,60.7,59.0,29.64,North,359,5.0,11.0,94,0.00,,,0.68,Wunderground v.1.15,2013-03-10 08:15:00,
2013-03-10 03:18:00,60.7,59.0,29.64,NNW,344,6.0,11.0,94,0.00,,,0.68,Wunderground v.1.15,2013-03-10 08:18:00,
2013-03-10 03:20:00,60.5,58.8,29.64,North,349,6.0,11.0,94,0.00,,,0.68,Wunderground v.1.15,2013-03-10 08:20:00,
2013-03-10 03:21:00,60.5,59.1,29.64,NNW,342,6.0,11.0,95,0.00,,,0.68,Wunderground v.1.15,2013-03-10 08:21:00,
2013-03-10 03:23:00,60.5,58.8,29.64,NNW,339,6.0,11.0,94,0.00,,,0.68,Wunderground v.1.15,2013-03-10 08:23:00,
2013-03-10 03:25:00,60.5,59.1,29.64,North,356,6.0,11.0,95,0.00,,,0.68,Wunderground v.1.15,2013-03-10 08:25:00,
2013-03-10 03:26:00,60.5,58.8,29.64,NNW,343,6.0,11.0,94,0.00,,,0.68,Wunderground v.1.15,2013-03-10 08:26:00,
2013-03-10 03:30:00,60.4,58.7,29.64,North,356,6.0,6.0,94,0.00,,,0.68,Wunderground v.1.15,2013-03-10 08:30:00,
2013-03-10 03:33:00,60.1,58.4,29.64,North,0,7.0,11.0,94,0.00,,,0.68,Wunderground v.1.15,2013-03-10 08:33:00,
2013-03-10 03:35:00,59.9,58.2,29.64,NNE,18,7.0,11.0,94,0.00,,,0.68,Wunderground v.1.15,2013-03-10 08:35:00,
2013-03-10 03:36:00,59.8,58.1,29.64,North,353,8.0,11.0,94,0.00,,,0.68,Wunderground v.1.15,2013-03-10 08:36:00,
2013-03-10 03:38:00,59.6,57.6,29.64,NNE,14,8.0,11.0,93,0.00,,,0.68,Wunderground v.1.15,2013-03-10 08:38:00,
2013-03-10 03:41:00,59.5,57.5,29.64,North,356,8.0,16.0,93,0.00,,,0.68,Wunderground v.1.15,2013-03-10 08:41:00,
2013-03-10 03:42:00,59.3,57.0,29.64,NNE,23,8.0,16.0,92,0.00,,,0.68,Wunderground v.1.15,2013-03-10 08:42:00,
2013-03-10 03:45:00,59.2,56.9,29.64,North,0,8.0,16.0,92,0.00,,,0.68,Wunderground v.1.15,2013-03-10 08:45:00,
2013-03-10 03:46:00,59.2,56.9,29.64,North,356,8.0,16.0,92,0.00,,,0.68,Wunderground v.1.15,2013-03-10 08:46:00,
2013-03-10 03:48:00,59.2,56.6,29.64,North,0,8.0,16.0,91,0.00,,,0.68,Wunderground v.1.15,2013-03-10 08:48:00,
2013-03-10 03:50:00,59.0,56.4,29.64,NNE,24,8.0,8.0,91,0.00,,,0.68,Wunderground v.1.15,2013-03-10 08:50:00,
2013-03-10 03:51:00,59.0,56.1,29.64,NNW,342,8.0,18.0,90,0.00,,,0.68,Wunderground v.1.15,2013-03-10 08:51:00,
2013-03-10 03:55:00,58.9,55.7,29.64,North,349,8.0,18.0,89,0.00,,,0.68,Wunderground v.1.15,2013-03-10 08:55:00,
2013-03-10 03:56:00,58.9,55.7,29.64,NNW,347,8.0,18.0,89,0.00,,,0.68,Wunderground v.1.15,2013-03-10 08:56:00,
2013-03-10 03:57:00,58.7,55.5,29.64,NE,47,8.0,18.0,89,0.00,,,0.68,Wunderground v.1.15,2013-03-10 08:57:00,
2013-03-10 04:02:00,58.7,54.8,29.64,North,4,8.0,13.0,87,0.00,,,0.68,Wunderground v.1.15,2013-03-10 09:02:00,
2013-03-10 04:04:00,58.7,54.8,29.64,NE,37,7.0,13.0,87,0.00,,,0.68,Wunderground v.1.15,2013-03-10 09:04:00,
2013-03-10 04:05:00,58.7,54.8,29.64,NNE,32,7.0,13.0,87,0.00,,,0.68,Wunderground v.1.15,2013-03-10 09:05:00,
2013-03-10 04:07:00,58.6,54.4,29.64,North,11,7.0,13.0,86,0.00,,,0.68,Wunderground v.1.15,2013-03-10 09:07:00,
2013-03-10 04:10:00,58.7,54.2,29.64,NE,45,7.0,7.0,85,0.00,,,0.68,Wunderground v.1.15,2013-03-10 09:10:00,
2013-03-10 04:15:00,58.7,53.9,29.64,North,6,7.0,18.0,84,0.00,,,0.68,Wunderground v.1.15,2013-03-10 09:15:00,
2013-03-10 04:17:00,58.7,53.5,29.64,NNE,16,8.0,18.0,83,0.00,,,0.68,Wunderground v.1.15,2013-03-10 09:17:00,
2013-03-10 04:20:00,58.7,53.5,29.64,NE,47,7.0,16.0,83,0.00,,,0.68,Wunderground v.1.15,2013-03-10 09:20:00,
2013-03-10 04:22:00,58.9,53.4,29.64,North,357,8.0,16.0,82,0.00,,,0.68,Wunderground v.1.15,2013-03-10 09:22:00,
2013-03-10 04:24:00,58.9,53.4,29.64,North,8,7.0,16.0,82,0.00,,,0.68,Wunderground v.1.15,2013-03-10 09:24:00,
2013-03-10 04:26:00,58.9,53.1,29.64,North,10,7.0,16.0,81,0.00,,,0.68,Wunderground v.1.15,2013-03-10 09:26:00,
2013-03-10 04:28:00,59.0,53.2,29.64,North,353,7.0,16.0,81,0.00,,,0.68,Wunderground v.1.15,2013-03-10 09:28:00,
2013-03-10 04:32:00,59.0,53.2,29.64,North,356,7.0,18.0,81,0.00,,,0.68,Wunderground v.1.15,2013-03-10 09:32:00,
2013-03-10 04:33:00,59.0,53.2,29.64,North,0,7.0,18.0,81,0.00,,,0.68,Wunderground v.1.15,2013-03-10 09:33:00,
2013-03-10 04:34:00,59.0,53.2,29.64,North,350,6.0,18.0,81,0.00,,,0.68,Wunderground v.1.15,2013-03-10 09:34:00,
2013-03-10 04:37:00,59.2,53.7,29.64,NNE,21,6.0,18.0,82,0.00,,,0.68,Wunderground v.1.15,2013-03-10 09:37:00,
2013-03-10 04:40:00,59.0,53.2,29.64,North,0,7.0,18.0,81,0.00,,,0.68,Wunderground v.1.15,2013-03-10 09:40:00,
2013-03-10 04:42:00,59.0,53.5,29.64,NNW,344,6.0,17.0,82,0.00,,,0.68,Wunderground v.1.15,2013-03-10 09:42:00,
2013-03-10 04:43:00,59.0,53.2,29.64,NNW,329,6.0,17.0,81,0.00,,,0.68,Wunderground v.1.15,2013-03-10 09:43:00,
2013-03-10 04:45:00,59.2,53.7,29.64,NNW,330,6.0,17.0,82,0.00,,,0.68,Wunderground v.1.15,2013-03-10 09:45:00,
2013-03-10 04:47:00,59.2,53.7,29.65,NNW,344,6.0,17.0,82,0.00,,,0.68,Wunderground v.1.15,2013-03-10 09:47:00,
2013-03-10 04:50:00,59.2,53.7,29.65,NNE,14,5.0,17.0,82,0.00,,,0.68,Wunderground v.1.15,2013-03-10 09:50:00,
2013-03-10 04:52:00,59.2,53.7,29.65,North,357,5.0,13.0,82,0.00,,,0.68,Wunderground v.1.15,2013-03-10 09:52:00,
2013-03-10 04:55:00,59.2,53.7,29.65,NNW,343,6.0,13.0,82,0.00,,,0.68,Wunderground v.1.15,2013-03-10 09:55:00,
2013-03-10 04:57:00,59.3,53.8,29.65,North,350,6.0,13.0,82,0.00,,,0.68,Wunderground v.1.15,2013-03-10 09:57:00,
2013-03-10 05:00:00,59.3,53.8,29.65,North,356,6.0,7.0,82,0.00,,,0.68,Wunderground v.1.15,2013-03-10 10:00:00,
2013-03-10 05:02:00,59.3,53.8,29.66,North,356,6.0,14.0,82,0.00,,,0.68,Wunderground v.1.15,2013-03-10 10:02:00,
2013-03-10 05:04:00,59.3,53.8,29.66,North,356,6.0,14.0,82,0.00,,,0.68,Wunderground v.1.15,2013-03-10 10:04:00,
2013-03-10 05:08:00,59.5,54.0,29.66,North,356,7.0,14.0,82,0.00,,,0.68,Wunderground v.1.15,2013-03-10 10:08:00,
2013-03-10 05:10:00,59.5,54.0,29.66,North,357,7.0,13.0,82,0.00,,,0.68,Wunderground v.1.15,2013-03-10 10:10:00,
2013-03-10 05:12:00,59.6,54.1,29.66,NNW,332,7.0,13.0,82,0.00,,,0.68,Wunderground v.1.15,2013-03-10 10:12:00,
2013-03-10 05:14:00,59.6,54.1,29.66,North,7,7.0,13.0,82,0.00,,,0.68,Wunderground v.1.15,2013-03-10 10:14:00,
2013-03-10 05:15:00,59.6,54.1,29.66,North,356,7.0,13.0,82,0.00,,,0.68,Wunderground v.1.15,2013-03-10 10:15:00,
2013-03-10 05:20:00,59.6,53.4,29.65,North,7,8.0,8.0,80,0.00,,,0.68,Wunderground v.1.15,2013-03-10 10:20:00,
2013-03-10 05:22:00,59.8,53.6,29.65,North,0,7.0,13.0,80,0.00,,,0.68,Wunderground v.1.15,2013-03-10 10:22:00,
2013-03-10 05:23:00,59.8,53.6,29.65,North,359,7.0,13.0,80,0.00,,,0.68,Wunderground v.1.15,2013-03-10 10:23:00,
2013-03-10 05:25:00,59.8,53.3,29.65,North,353,7.0,13.0,79,0.00,,,0.68,Wunderground v.1.15,2013-03-10 10:25:00,
2013-03-10 05:30:00,59.8,52.6,29.65,NNE,14,7.0,14.0,77,0.00,,,0.68,Wunderground v.1.15,2013-03-10 10:30:00,
2013-03-10 05:32:00,59.8,52.2,29.66,NNW,343,7.0,14.0,76,0.00,,,0.68,Wunderground v.1.15,2013-03-10 10:32:00,
2013-03-10 05:35:00,59.8,51.9,29.66,North,349,7.0,14.0,75,0.00,,,0.68,Wunderground v.1.15,2013-03-10 10:35:00,
2013-03-10 05:36:00,59.8,51.9,29.66,North,353,7.0,14.0,75,0.00,,,0.68,Wunderground v.1.15,2013-03-10 10:36:00,
2013-03-10 05:38:00,59.8,51.5,29.66,NNE,14,7.0,14.0,74,0.00,,,0.68,Wunderground v.1.15,2013-03-10 10:38:00,
2013-03-10 05:42:00,59.9,51.2,29.66,NNE,23,7.0,18.0,73,0.00,,,0.68,Wunderground v.1.15,2013-03-10 10:42:00,
2013-03-10 05:43:00,59.8,50.8,29.66,NNW,346,7.0,18.0,72,0.00,,,0.68,Wunderground v.1.15,2013-03-10 10:43:00,
2013-03-10 05:48:00,59.9,50.1,29.66,North,352,8.0,18.0,70,0.00,,,0.68,Wunderground v.1.15,2013-03-10 10:48:00,
2013-03-10 05:50:00,59.9,49.7,29.66,NNE,20,8.0,18.0,69,0.00,,,0.68,Wunderground v.1.15,2013-03-10 10:50:00,
2013-03-10 05:51:00,59.9,49.7,29.66,North,0,8.0,14.0,69,0.00,,,0.68,Wunderground v.1.15,2013-03-10 10:51:00,
2013-03-10 05:54:00,59.9,49.3,29.66,NNE,20,8.0,14.0,68,0.00,,,0.68,Wunderground v.1.15,2013-03-10 10:54:00,
2013-03-10 05:55:00,59.9,49.3,29.66,NNE,14,8.0,14.0,68,0.00,,,0.68,Wunderground v.1.15,2013-03-10 10:55:00,
2013-03-10 05:56:00,59.9,49.3,29.66,NNE,23,8.0,14.0,68,0.00,,,0.68,Wunderground v.1.15,2013-03-10 10:56:00,
2013-03-10 05:58:00,59.9,48.9,29.66,North,349,9.0,14.0,67,0.00,,,0.68,Wunderground v.1.15,2013-03-10 10:58:00,
2013-03-10 06:01:00,59.9,48.5,29.67,NNW,342,9.0,20.0,66,0.00,,,0.68,Wunderground v.1.15,2013-03-10 11:01:00,
2013-03-10 06:03:00,59.8,48.0,29.67,NW,305,9.0,20.0,65,0.00,,,0.68,Wunderground v.1.15,2013-03-10 11:03:00,
2013-03-10 06:05:00,59.8,48.0,29.67,North,350,9.0,20.0,65,0.00,,,0.68,Wunderground v.1.15,2013-03-10 11:05:00,
2013-03-10 06:07:00,59.8,48.0,29.67,NNW,347,9.0,20.0,65,0.00,,,0.68,Wunderground v.1.15,2013-03-10 11:07:00,
2013-03-10 06:08:00,59.8,48.0,29.67,North,356,9.0,20.0,65,0.00,,,0.68,Wunderground v.1.15,2013-03-10 11:08:00,
2013-03-10 06:10:00,59.8,48.0,29.67,North,359,9.0,9.0,65,0.00,,,0.68,Wunderground v.1.15,2013-03-10 11:10:00,
2013-03-10 06:12:00,59.6,47.8,29.67,North,357,8.0,20.0,65,0.00,,,0.68,Wunderground v.1.15,2013-03-10 11:12:00,
2013-03-10 06:13:00,59.6,47.8,29.67,North,349,8.0,20.0,65,0.00,,,0.68,Wunderground v.1.15,2013-03-10 11:13:00,
2013-03-10 06:16:00,59.5,47.7,29.69,North,0,8.0,20.0,65,0.00,,,0.68,Wunderground v.1.15,2013-03-10 11:16:00,
2013-03-10 06:18:00,59.5,47.7,29.69,NW,325,8.0,20.0,65,0.00,,,0.68,Wunderground v.1.15,2013-03-10 11:18:00,
2013-03-10 06:20:00,59.3,47.1,29.69,North,354,8.0,20.0,64,0.00,,,0.68,Wunderground v.1.15,2013-03-10 11:20:00,
2013-03-10 06:21:00,59.3,47.1,29.69,North,354,8.0,18.0,64,0.00,,,0.68,Wunderground v.1.15,2013-03-10 11:21:00,
2013-03-10 06:24:00,59.3,45.8,29.69,NNW,333,8.0,18.0,61,0.00,,,0.68,Wunderground v.1.15,2013-03-10 11:24:00,
2013-03-10 06:26:00,59.3,45.8,29.69,North,3,8.0,18.0,61,0.00,,,0.68,Wunderground v.1.15,2013-03-10 11:26:00,
2013-03-10 06:28:00,59.3,45.8,29.69,North,1,8.0,18.0,61,0.00,,,0.68,Wunderground v.1.15,2013-03-10 11:28:00,
2013-03-10 06:30:00,59.3,45.4,29.69,North,0,9.0,19.0,60,0.00,,,0.68,Wunderground v.1.15,2013-03-10 11:30:00,
2013-03-10 06:31:00,59.3,45.4,29.69,NNW,346,9.0,19.0,60,0.00,,,0.68,Wunderground v.1.15,2013-03-10 11:31:00,
2013-03-10 06:33:00,59.3,45.0,29.69,North,0,9.0,19.0,59,0.00,,,0.68,Wunderground v.1.15,2013-03-10 11:33:00,
2013-03-10 06:35:00,59.3,45.4,29.69,NNW,347,8.0,19.0,60,0.00,,,0.68,Wunderground v.1.15,2013-03-10 11:35:00,
2013-03-10 06:36:00,59.3,45.4,29.69,North,357,8.0,19.0,60,0.00,,,0.68,Wunderground v.1.15,2013-03-10 11:36:00,
2013-03-10 06:40:00,59.2,44.4,29.69,NNW,328,8.0,20.0,58,0.00,,,0.68,Wunderground v.1.15,2013-03-10 11:40:00,
2013-03-10 06:43:00,59.2,45.3,29.69,NNW,344,7.0,20.0,60,0.00,,,0.68,Wunderground v.1.15,2013-03-10 11:43:00,
2013-03-10 06:46:00,59.0,44.2,29.70,North,4,7.0,20.0,58,0.00,,,0.68,Wunderground v.1.15,2013-03-10 11:46:00,
2013-03-10 06:50:00,59.0,44.2,29.70,North,357,7.0,7.0,58,0.00,,,0.68,Wunderground v.1.15,2013-03-10 11:50:00,
2013-03-10 06:51:00,59.0,44.2,29.70,North,352,7.0,18.0,58,0.00,,,0.68,Wunderground v.1.15,2013-03-10 11:51:00,
2013-03-10 06:52:00,59.0,44.2,29.70,NNW,340,7.0,18.0,58,0.00,,,0.68,Wunderground v.1.15,2013-03-10 11:52:00,
2013-03-10 06:54:00,59.0,44.2,29.70,North,11,7.0,18.0,58,0.00,,,0.68,Wunderground v.1.15,2013-03-10 11:54:00,
2013-03-10 06:57:00,58.9,44.1,29.70,NW,326,7.0,18.0,58,0.00,,,0.68,Wunderground v.1.15,2013-03-10 11:57:00,
2013-03-10 06:58:00,58.9,44.1,29.70,North,0,7.0,18.0,58,0.00,,,0.68,Wunderground v.1.15,2013-03-10 11:58:00,
2013-03-10 07:00:00,58.9,44.1,29.70,North,359,6.0,6.0,58,0.00,,,0.68,Wunderground v.1.15,2013-03-10 12:00:00,
2013-03-10 07:03:00,58.7,44.0,29.71,NNW,333,6.0,13.0,58,0.00,,,0.68,Wunderground v.1.15,2013-03-10 12:03:00,
2013-03-10 07:04:00,58.7,44.4,29.71,North,0,6.0,13.0,59,0.00,,,0.68,Wunderground v.1.15,2013-03-10 12:04:00,
2013-03-10 07:05:00,58.7,44.4,29.71,NNW,346,6.0,13.0,59,0.00,,,0.68,Wunderground v.1.15,2013-03-10 12:05:00,
2013-03-10 07:10:00,58.6,44.8,29.71,North,0,6.0,16.0,60,0.00,,,0.68,Wunderground v.1.15,2013-03-10 12:10:00,
2013-03-10 07:11:00,58.6,44.8,29.71,North,352,5.0,16.0,60,0.00,,,0.68,Wunderground v.1.15,2013-03-10 12:11:00,
2013-03-10 07:14:00,58.4,44.6,29.71,North,354,5.0,16.0,60,0.00,,,0.68,Wunderground v.1.15,2013-03-10 12:14:00,
2013-03-10 07:15:00,58.4,44.6,29.71,North,350,5.0,16.0,60,0.00,,,0.68,Wunderground v.1.15,2013-03-10 12:15:00,
2013-03-10 07:18:00,58.3,44.5,29.72,NNW,343,4.0,16.0,60,0.00,,,0.68,Wunderground v.1.15,2013-03-10 12:18:00,
2013-03-10 07:20:00,58.3,44.9,29.72,North,349,4.0,4.0,61,0.00,,,0.68,Wunderground v.1.15,2013-03-10 12:20:00,
2013-03-10 07:22:00,58.3,44.9,29.72,North,354,4.0,7.0,61,0.00,,,0.68,Wunderground v.1.15,2013-03-10 12:22:00,
2013-03-10 07:25:00,58.1,44.7,29.72,NNW,343,4.0,11.0,61,0.00,,,0.68,Wunderground v.1.15,2013-03-10 12:25:00,
2013-03-10 07:27:00,58.1,44.7,29.72,North,0,4.0,11.0,61,0.00,,,0.68,Wunderground v.1.15,2013-03-10 12:27:00,
2013-03-10 07:28:00,58.1,44.7,29.72,North,357,4.0,11.0,61,0.00,,,0.68,Wunderground v.1.15,2013-03-10 12:28:00,
2013-03-10 07:30:00,58.1,44.7,29.72,NNW,347,5.0,9.0,61,0.00,,,0.68,Wunderground v.1.15,2013-03-10 12:30:00,
2013-03-10 07:32:00,58.0,44.2,29.73,North,7,5.0,9.0,60,0.00,,,0.68,Wunderground v.1.15,2013-03-10 12:32:00,
2013-03-10 07:33:00,58.0,44.2,29.73,North,354,5.0,9.0,60,0.00,,,0.68,Wunderground v.1.15,2013-03-10 12:33:00,
2013-03-10 07:34:00,58.0,44.2,29.73,North,0,5.0,9.0,60,0.00,,,0.68,Wunderground v.1.15,2013-03-10 12:34:00,
2013-03-10 07:37:00,58.0,44.2,29.73,NW,315,5.0,10.0,60,0.00,,,0.68,Wunderground v.1.15,2013-03-10 12:37:00,
2013-03-10 07:38:00,58.0,44.2,29.73,North,0,5.0,10.0,60,0.00,,,0.68,Wunderground v.1.15,2013-03-10 12:38:00,
2013-03-10 07:40:00,58.0,44.2,29.73,North,0,5.0,9.0,60,0.00,,,0.68,Wunderground v.1.15,2013-03-10 12:40:00,
2013-03-10 07:44:00,58.0,43.7,29.73,NNW,337,5.0,9.0,59,0.00,,,0.68,Wunderground v.1.15,2013-03-10 12:44:00,
2013-03-10 07:45:00,58.0,43.7,29.73,NNW,339,5.0,9.0,59,0.00,,,0.68,Wunderground v.1.15,2013-03-10 12:45:00,
2013-03-10 07:50:00,58.0,43.3,29.73,NNW,347,5.0,11.0,58,0.00,,,0.68,Wunderground v.1.15,2013-03-10 12:50:00,
2013-03-10 07:51:00,58.0,43.3,29.73,NNW,340,5.0,11.0,58,0.00,,,0.68,Wunderground v.1.15,2013-03-10 12:51:00,
2013-03-10 07:54:00,58.0,43.3,29.73,North,349,5.0,11.0,58,0.00,,,0.68,Wunderground v.1.15,2013-03-10 12:54:00,
2013-03-10 07:56:00,57.8,43.6,29.73,North,354,6.0,11.0,59,0.00,,,0.68,Wunderground v.1.15,2013-03-10 12:56:00,
2013-03-10 07:57:00,57.8,43.1,29.73,NW,323,6.0,11.0,58,0.00,,,0.68,Wunderground v.1.15,2013-03-10 12:57:00,
2013-03-10 08:01:00,57.8,43.1,29.74,NNW,340,5.0,10.0,58,0.00,,,0.68,Wunderground v.1.15,2013-03-10 13:01:00,
2013-03-10 08:02:00,57.8,43.1,29.74,NNW,347,5.0,10.0,58,0.00,,,0.68,Wunderground v.1.15,2013-03-10 13:02:00,
2013-03-10 08:03:00,57.8,43.1,29.74,North,352,5.0,10.0,58,0.00,,,0.68,Wunderground v.1.15,2013-03-10 13:03:00,
2013-03-10 08:05:00,57.8,43.1,29.74,North,354,5.0,10.0,58,0.00,,,0.68,Wunderground v.1.15,2013-03-10 13:05:00,
2013-03-10 08:06:00,57.8,43.1,29.74,NNW,344,5.0,10.0,58,0.00,,,0.68,Wunderground v.1.15,2013-03-10 13:06:00,
2013-03-10 08:07:00,57.8,43.1,29.74,North,349,5.0,10.0,58,0.00,,,0.68,Wunderground v.1.15,2013-03-10 13:07:00,
2013-03-10 08:11:00,57.8,43.1,29.74,NNW,342,5.0,11.0,58,0.00,,,0.68,Wunderground v.1.15,2013-03-10 13:11:00,
2013-03-10 08:12:00,57.8,43.1,29.74,NNW,339,5.0,11.0,58,0.00,,,0.68,Wunderground v.1.15,2013-03-10 13:12:00,
2013-03-10 08:14:00,57.8,43.1,29.74,North,0,5.0,11.0,58,0.00,,,0.68,Wunderground v.1.15,2013-03-10 13:14:00,
2013-03-10 08:15:00,57.8,43.1,29.74,North,359,5.0,11.0,58,0.00,,,0.68,Wunderground v.1.15,2013-03-10 13:15:00,
2013-03-10 08:17:00,57.8,43.1,29.75,North,353,5.0,11.0,58,0.00,,,0.68,Wunderground v.1.15,2013-03-10 13:17:00,
2013-03-10 08:20:00,57.8,43.1,29.75,North,3,5.0,10.0,58,0.00,,,0.68,Wunderground v.1.15,2013-03-10 13:20:00,
2013-03-10 08:24:00,57.8,43.1,29.75,North,354,5.0,10.0,58,0.00,,,0.68,Wunderground v.1.15,2013-03-10 13:24:00,
2013-03-10 08:25:00,57.8,43.1,29.75,North,359,5.0,10.0,58,0.00,,,0.68,Wunderground v.1.15,2013-03-10 13:25:00,
2013-03-10 08:27:00,57.8,42.7,29.75,NNW,337,5.0,10.0,57,0.00,,,0.68,Wunderground v.1.15,2013-03-10 13:27:00,
2013-03-10 08:28:00,57.8,42.7,29.75,NNW,337,5.0,10.0,57,0.00,,,0.68,Wunderground v.1.15,2013-03-10 13:28:00,
2013-03-10 08:30:00,57.8,42.7,29.75,NNW,346,5.0,10.0,57,0.00,,,0.68,Wunderground v.1.15,2013-03-10 13:30:00,
2013-03-10 08:32:00,57.8,42.7,29.76,NNW,337,5.0,10.0,57,0.00,,,0.68,Wunderground v.1.15,2013-03-10 13:32:00,
2013-03-10 08:33:00,57.8,42.7,29.76,NW,318,5.0,10.0,57,0.00,,,0.68,Wunderground v.1.15,2013-03-10 13:33:00,
2013-03-10 08:37:00,57.8,42.7,29.76,North,356,5.0,10.0,57,0.00,,,0.68,Wunderground v.1.15,2013-03-10 13:37:00,
2013-03-10 08:38:00,57.8,43.1,29.76,NNW,329,5.0,10.0,58,0.00,,,0.68,Wunderground v.1.15,2013-03-10 13:38:00,
2013-03-10 08:39:00,57.8,43.1,29.76,NNW,342,6.0,12.0,58,0.00,,,0.68,Wunderground v.1.15,2013-03-10 13:39:00,
2013-03-10 08:42:00,57.8,43.1,29.76,NNW,328,5.0,12.0,58,0.00,,,0.68,Wunderground v.1.15,2013-03-10 13:42:00,
2013-03-10 08:43:00,57.8,42.7,29.76,NNW,339,5.0,12.0,57,0.00,,,0.68,Wunderground v.1.15,2013-03-10 13:43:00,
2013-03-10 08:45:00,57.8,43.1,29.76,North,353,5.0,12.0,58,0.00,,,0.68,Wunderground v.1.15,2013-03-10 13:45:00,
2013-03-10 08:50:00,57.6,42.9,29.77,NW,312,6.0,6.0,58,0.00,,,0.68,Wunderground v.1.15,2013-03-10 13:50:00,
2013-03-10 08:51:00,57.6,42.5,29.77,NNW,333,5.0,12.0,57,0.00,,,0.68,Wunderground v.1.15,2013-03-10 13:51:00,
2013-03-10 08:52:00,57.6,42.5,29.77,NNW,333,5.0,12.0,57,0.00,,,0.68,Wunderground v.1.15,2013-03-10 13:52:00,
2013-03-10 08:57:00,57.6,42.9,29.77,NW,306,4.0,12.0,58,0.00,,,0.68,Wunderground v.1.15,2013-03-10 13:57:00,
2013-03-10 08:59:00,57.6,42.5,29.77,NW,322,4.0,4.0,57,0.00,,,0.68,Wunderground v.1.15,2013-03-10 13:59:00,
2013-03-10 09:02:00,57.5,42.8,29.78,North,359,4.0,12.0,58,0.00,,,0.68,Wunderground v.1.15,2013-03-10 14:02:00,
2013-03-10 09:03:00,57.5,42.4,29.78,North,0,4.0,12.0,57,0.00,,,0.68,Wunderground v.1.15,2013-03-10 14:03:00,
2013-03-10 09:05:00,57.5,42.4,29.78,North,0,5.0,12.0,57,0.00,,,0.68,Wunderground v.1.15,2013-03-10 14:05:00,
2013-03-10 09:07:00,57.6,42.5,29.78,NNW,329,5.0,12.0,57,0.00,,,0.68,Wunderground v.1.15,2013-03-10 14:07:00,
2013-03-10 09:09:00,57.8,42.2,29.78,NNW,342,5.0,10.0,56,0.00,,,0.68,Wunderground v.1.15,2013-03-10 14:09:00,
2013-03-10 09:10:00,57.8,42.2,29.78,NNW,342,5.0,10.0,56,0.00,,,0.68,Wunderground v.1.15,2013-03-10 14:10:00,
2013-03-10 09:12:00,58.0,42.4,29.78,North,0,6.0,10.0,56,0.00,,,0.68,Wunderground v.1.15,2013-03-10 14:12:00,
2013-03-10 09:16:00,58.3,41.7,29.79,NNE,18,6.0,10.0,54,0.00,,,0.68,Wunderground v.1.15,2013-03-10 14:16:00,
2013-03-10 09:17:00,58.4,41.8,29.79,North,1,7.0,10.0,54,0.00,,,0.68,Wunderground v.1.15,2013-03-10 14:17:00,
2013-03-10 09:19:00,58.6,41.0,29.79,North,0,7.0,7.0,52,0.00,,,0.68,Wunderground v.1.15,2013-03-10 14:19:00,
2013-03-10 09:23:00,58.7,40.6,29.79,NNW,332,8.0,16.0,51,0.00,,,0.68,Wunderground v.1.15,2013-03-10 14:23:00,
2013-03-10 09:24:00,58.7,40.6,29.79,North,0,8.0,16.0,51,0.00,,,0.68,Wunderground v.1.15,2013-03-10 14:24:00,
2013-03-10 09:25:00,58.9,40.8,29.79,North,349,8.0,17.0,51,0.00,,,0.68,Wunderground v.1.15,2013-03-10 14:25:00,
2013-03-10 09:28:00,58.9,40.3,29.79,NNW,333,9.0,17.0,50,0.00,,,0.68,Wunderground v.1.15,2013-03-10 14:28:00,
2013-03-10 09:30:00,59.0,39.9,29.79,North,352,9.0,10.0,49,0.00,,,0.68,Wunderground v.1.15,2013-03-10 14:30:00,
2013-03-10 09:31:00,59.0,40.4,29.80,NW,311,9.0,14.0,50,0.00,,,0.68,Wunderground v.1.15,2013-03-10 14:31:00,
2013-03-10 09:33:00,59.2,40.0,29.80,NNW,335,9.0,14.0,49,0.00,,,0.68,Wunderground v.1.15,2013-03-10 14:33:00,
2013-03-10 09:36:00,59.2,39.5,29.80,NW,319,10.0,18.0,48,0.00,,,0.68,Wunderground v.1.15,2013-03-10 14:36:00,
2013-03-10 09:37:00,59.2,39.5,29.80,NW,313,9.0,18.0,48,0.00,,,0.68,Wunderground v.1.15,2013-03-10 14:37:00,
2013-03-10 09:38:00,59.0,39.9,29.80,NNW,340,10.0,19.0,49,0.00,,,0.68,Wunderground v.1.15,2013-03-10 14:38:00,
2013-03-10 09:39:00,59.0,39.9,29.80,North,0,10.0,19.0,49,0.00,,,0.68,Wunderground v.1.15,2013-03-10 14:39:00,
2013-03-10 09:43:00,58.9,40.3,29.80,North,357,10.0,19.0,50,0.00,,,0.68,Wunderground v.1.15,2013-03-10 14:43:00,
2013-03-10 09:44:00,58.9,40.3,29.80,NW,323,10.0,19.0,50,0.00,,,0.68,Wunderground v.1.15,2013-03-10 14:44:00,
2013-03-10 09:45:00,58.9,40.3,29.81,North,354,10.0,19.0,50,0.00,,,0.68,Wunderground v.1.15,2013-03-10 14:45:00,
2013-03-10 09:49:00,58.9,39.8,29.81,North,0,9.0,9.0,49,0.00,,,0.68,Wunderground v.1.15,2013-03-10 14:49:00,
2013-03-10 09:51:00,58.9,39.8,29.81,North,354,9.0,19.0,49,0.00,,,0.68,Wunderground v.1.15,2013-03-10 14:51:00,
2013-03-10 09:52:00,58.9,39.8,29.81,North,0,9.0,19.0,49,0.00,,,0.68,Wunderground v.1.15,2013-03-10 14:52:00,
2013-03-10 09:53:00,58.9,39.8,29.81,NNW,336,9.0,19.0,49,0.00,,,0.68,Wunderground v.1.15,2013-03-10 14:53:00,
2013-03-10 09:57:00,58.9,39.2,29.81,WNW,292,9.0,19.0,48,0.00,,,0.68,Wunderground v.1.15,2013-03-10 14:57:00,
2013-03-10 09:59:00,58.7,39.0,29.81,North,0,10.0,22.0,48,0.00,,,0.68,Wunderground v.1.15,2013-03-10 14:59:00,
2013-03-10 10:00:00,58.6,37.9,29.81,North,354,10.0,22.0,46,0.00,,,0.68,Wunderground v.1.15,2013-03-10 15:00:00,
2013-03-10 10:05:00,58.6,37.9,29.82,NNW,346,10.0,22.0,46,0.00,,,0.68,Wunderground v.1.15,2013-03-10 15:05:00,
2013-03-10 10:06:00,58.4,37.1,29.82,NE,41,10.0,22.0,45,0.00,,,0.68,Wunderground v.1.15,2013-03-10 15:06:00,
2013-03-10 10:09:00,58.3,36.5,29.82,North,352,11.0,11.0,44,0.00,,,0.68,Wunderground v.1.15,2013-03-10 15:09:00,
2013-03-10 10:10:00,58.3,36.5,29.82,North,0,10.0,25.0,44,0.00,,,0.68,Wunderground v.1.15,2013-03-10 15:10:00,
2013-03-10 10:13:00,58.3,37.0,29.82,North,353,9.0,25.0,45,0.00,,,0.68,Wunderground v.1.15,2013-03-10 15:13:00,
2013-03-10 10:15:00,58.3,37.0,29.82,NNW,339,10.0,25.0,45,0.00,,,0.68,Wunderground v.1.15,2013-03-10 15:15:00,
2013-03-10 10:16:00,58.1,36.9,29.83,NW,316,10.0,25.0,45,0.00,,,0.68,Wunderground v.1.15,2013-03-10 15:16:00,
2013-03-10 10:18:00,58.1,36.9,29.83,North,0,10.0,25.0,45,0.00,,,0.68,Wunderground v.1.15,2013-03-10 15:18:00,
2013-03-10 10:20:00,58.1,36.9,29.83,NNW,333,10.0,17.0,45,0.00,,,0.68,Wunderground v.1.15,2013-03-10 15:20:00,
2013-03-10 10:21:00,58.0,36.2,29.83,NNW,340,11.0,19.0,44,0.00,,,0.68,Wunderground v.1.15,2013-03-10 15:21:00,
2013-03-10 10:23:00,58.0,35.6,29.83,NNW,339,12.0,19.0,43,0.00,,,0.68,Wunderground v.1.15,2013-03-10 15:23:00,
2013-03-10 10:25:00,58.0,35.6,29.83,NNW,343,12.0,19.0,43,0.00,,,0.68,Wunderground v.1.15,2013-03-10 15:25:00,
2013-03-10 10:28:00,58.1,36.3,29.83,North,349,12.0,19.0,44,0.00,,,0.68,Wunderground v.1.15,2013-03-10 15:28:00,
2013-03-10 10:29:00,58.1,35.7,29.83,North,0,11.0,22.0,43,0.00,,,0.68,Wunderground v.1.15,2013-03-10 15:29:00,
2013-03-10 10:30:00,58.3,35.3,29.83,NNW,344,11.0,22.0,42,0.00,,,0.68,Wunderground v.1.15,2013-03-10 15:30:00,
2013-03-10 10:33:00,58.3,34.7,29.84,North,349,10.0,22.0,41,0.00,,,0.68,Wunderground v.1.15,2013-03-10 15:33:00,
2013-03-10 10:35:00,58.3,34.7,29.84,NNW,329,10.0,22.0,41,0.00,,,0.68,Wunderground v.1.15,2013-03-10 15:35:00,
2013-03-10 10:37:00,58.3,34.7,29.84,North,350,10.0,22.0,41,0.00,,,0.68,Wunderground v.1.15,2013-03-10 15:37:00,
2013-03-10 10:39:00,58.4,34.8,29.84,NW,316,10.0,24.0,41,0.00,,,0.68,Wunderground v.1.15,2013-03-10 15:39:00,
2013-03-10 10:44:00,58.4,34.2,29.84,NW,318,11.0,24.0,40,0.00,,,0.68,Wunderground v.1.15,2013-03-10 15:44:00,
2013-03-10 10:45:00,58.6,34.3,29.84,NNW,344,11.0,24.0,40,0.00,,,0.68,Wunderground v.1.15,2013-03-10 15:45:00,
2013-03-10 10:47:00,58.6,34.3,29.84,NNW,330,11.0,24.0,40,0.00,,,0.68,Wunderground v.1.15,2013-03-10 15:47:00,
2013-03-10 10:51:00,58.6,33.0,29.84,NNW,330,12.0,20.0,38,0.00,,,0.68,Wunderground v.1.15,2013-03-10 15:51:00,
2013-03-10 10:53:00,58.6,33.7,29.84,NE,41,12.0,20.0,39,0.00,,,0.68,Wunderground v.1.15,2013-03-10 15:53:00,
2013-03-10 10:54:00,58.6,33.7,29.84,NNW,336,12.0,20.0,39,0.00,,,0.68,Wunderground v.1.15,2013-03-10 15:54:00,
2013-03-10 10:57:00,58.6,33.7,29.84,NW,316,12.0,20.0,39,0.00,,,0.68,Wunderground v.1.15,2013-03-10 15:57:00,
2013-03-10 10:59:00,58.4,34.2,29.84,NNW,337,11.0,20.0,40,0.00,,,0.68,Wunderground v.1.15,2013-03-10 15:59:00,
2013-03-10 11:03:00,58.6,35.0,29.85,North,3,10.0,26.0,41,0.00,,,0.68,Wunderground v.1.15,2013-03-10 16:03:00,
2013-03-10 11:05:00,59.0,34.1,29.85,North,349,10.0,26.0,39,0.00,,,0.68,Wunderground v.1.15,2013-03-10 16:05:00,
2013-03-10 11:06:00,59.2,33.6,29.85,North,349,10.0,26.0,38,0.00,,,0.68,Wunderground v.1.15,2013-03-10 16:06:00,
2013-03-10 11:08:00,59.2,34.2,29.85,North,352,9.0,26.0,39,0.00,,,0.68,Wunderground v.1.15,2013-03-10 16:08:00,
2013-03-10 11:12:00,59.3,33.7,29.85,North,356,9.0,22.0,38,0.00,,,0.68,Wunderground v.1.15,2013-03-10 16:12:00,
2013-03-10 11:13:00,59.3,33.7,29.85,North,0,9.0,22.0,38,0.00,,,0.68,Wunderground v.1.15,2013-03-10 16:13:00,
2013-03-10 11:17:00,59.6,32.6,29.86,NNW,340,9.0,22.0,36,0.00,,,0.68,Wunderground v.1.15,2013-03-10 16:17:00,
2013-03-10 11:18:00,59.6,32.6,29.86,North,356,10.0,22.0,36,0.00,,,0.68,Wunderground v.1.15,2013-03-10 16:18:00,
2013-03-10 11:19:00,59.6,33.3,29.86,North,353,10.0,22.0,37,0.00,,,0.68,Wunderground v.1.15,2013-03-10 16:19:00,
2013-03-10 11:20:00,59.6,33.3,29.86,NW,326,10.0,22.0,37,0.00,,,0.68,Wunderground v.1.15,2013-03-10 16:20:00,
2013-03-10 11:24:00,59.6,32.6,29.86,NNW,332,11.0,18.0,36,0.00,,,0.68,Wunderground v.1.15,2013-03-10 16:24:00,
2013-03-10 11:26:00,59.5,33.9,29.86,NNW,347,11.0,18.0,38,0.00,,,0.68,Wunderground v.1.15,2013-03-10 16:26:00,
2013-03-10 11:27:00,59.5,33.2,29.86,NW,326,10.0,18.0,37,0.00,,,0.68,Wunderground v.1.15,2013-03-10 16:27:00,
2013-03-10 11:31:00,59.3,33.0,29.86,NNW,343,11.0,11.0,37,0.00,,,0.68,Wunderground v.1.15,2013-03-10 16:31:00,
2013-03-10 11:32:00,59.3,33.7,29.86,NNW,330,11.0,20.0,38,0.00,,,0.68,Wunderground v.1.15,2013-03-10 16:32:00,
2013-03-10 11:34:00,59.3,33.7,29.86,NNW,329,10.0,20.0,38,0.00,,,0.68,Wunderground v.1.15,2013-03-10 16:34:00,
2013-03-10 11:39:00,59.0,33.4,29.86,NW,311,10.0,20.0,38,0.00,,,0.68,Wunderground v.1.15,2013-03-10 16:39:00,
2013-03-10 11:41:00,59.0,33.4,29.86,NNW,340,9.0,12.0,38,0.00,,,0.68,Wunderground v.1.15,2013-03-10 16:41:00,
2013-03-10 11:43:00,59.0,33.4,29.86,NE,42,9.0,20.0,38,0.00,,,0.68,Wunderground v.1.15,2013-03-10 16:43:00,
2013-03-10 11:44:00,59.2,32.9,29.86,North,10,9.0,20.0,37,0.00,,,0.68,Wunderground v.1.15,2013-03-10 16:44:00,
2013-03-10 11:45:00,59.2,32.9,29.86,North,349,9.0,20.0,37,0.00,,,0.68,Wunderground v.1.15,2013-03-10 16:45:00,
2013-03-10 11:48:00,59.2,33.6,29.87,NNW,332,8.0,20.0,38,0.00,,,0.68,Wunderground v.1.15,2013-03-10 16:48:00,
2013-03-10 11:50:00,59.6,33.9,29.87,North,3,9.0,11.0,38,0.00,,,0.68,Wunderground v.1.15,2013-03-10 16:50:00,
2013-03-10 11:51:00,59.6,33.3,29.87,NNW,330,9.0,19.0,37,0.00,,,0.68,Wunderground v.1.15,2013-03-10 16:51:00,
2013-03-10 11:53:00,59.8,33.5,29.87,NW,304,9.0,19.0,37,0.00,,,0.68,Wunderground v.1.15,2013-03-10 16:53:00,
2013-03-10 11:57:00,60.1,35.0,29.87,NNW,346,9.0,19.0,39,0.00,,,0.68,Wunderground v.1.15,2013-03-10 16:57:00,
2013-03-10 11:58:00,60.2,33.8,29.87,North,353,9.0,19.0,37,0.00,,,0.68,Wunderground v.1.15,2013-03-10 16:58:00,
2013-03-10 12:00:00,60.2,33.8,29.87,North,349,10.0,10.0,37,0.00,,,0.68,Wunderground v.1.15,2013-03-10 17:00:00,
2013-03-10 12:03:00,60.4,33.3,29.87,NNW,346,10.0,20.0,36,0.00,,,0.68,Wunderground v.1.15,2013-03-10 17:03:00,
2013-03-10 12:04:00,60.4,33.3,29.87,NW,322,10.0,20.0,36,0.00,,,0.68,Wunderground v.1.15,2013-03-10 17:04:00,
2013-03-10 12:07:00,60.5,32.7,29.87,North,7,10.0,20.0,35,0.00,,,0.68,Wunderground v.1.15,2013-03-10 17:07:00,
2013-03-10 12:08:00,60.5,32.7,29.87,North,356,10.0,20.0,35,0.00,,,0.68,Wunderground v.1.15,2013-03-10 17:08:00,
2013-03-10 12:10:00,60.4,32.6,29.87,North,0,10.0,22.0,35,0.00,,,0.68,Wunderground v.1.15,2013-03-10 17:10:00,
2013-03-10 12:13:00,60.2,32.4,29.87,NW,315,11.0,22.0,35,0.00,,,0.68,Wunderground v.1.15,2013-03-10 17:13:00,
2013-03-10 12:15:00,60.2,32.4,29.88,NW,315,12.0,22.0,35,0.00,,,0.68,Wunderground v.1.15,2013-03-10 17:15:00,
2013-03-10 12:17:00,60.2,33.1,29.88,North,0,12.0,22.0,36,0.00,,,0.68,Wunderground v.1.15,2013-03-10 17:17:00,
2013-03-10 12:18:00,60.2,32.4,29.88,NNW,332,12.0,22.0,35,0.00,,,0.68,Wunderground v.1.15,2013-03-10 17:18:00,
2013-03-10 12:19:00,60.2,32.4,29.88,NW,323,12.0,22.0,35,0.00,,,0.68,Wunderground v.1.15,2013-03-10 17:19:00,
2013-03-10 12:20:00,60.1,32.3,29.88,NNW,347,12.0,19.0,35,0.00,,,0.68,Wunderground v.1.15,2013-03-10 17:20:00,
2013-03-10 12:24:00,60.4,32.6,29.88,North,0,11.0,19.0,35,0.00,,,0.68,Wunderground v.1.15,2013-03-10 17:24:00,
2013-03-10 12:26:00,60.5,32.7,29.88,NNW,346,12.0,19.0,35,0.00,,,0.68,Wunderground v.1.15,2013-03-10 17:26:00,
2013-03-10 12:28:00,60.4,32.6,29.88,North,6,12.0,19.0,35,0.00,,,0.68,Wunderground v.1.15,2013-03-10 17:28:00,
2013-03-10 12:29:00,60.5,32.7,29.88,NW,326,11.0,19.0,35,0.00,,,0.68,Wunderground v.1.15,2013-03-10 17:29:00,
2013-03-10 12:30:00,60.7,33.6,29.88,NNE,14,11.0,25.0,36,0.00,,,0.68,Wunderground v.1.15,2013-03-10 17:30:00,
2013-03-10 12:35:00,61.0,33.1,29.88,NW,306,9.0,25.0,35,0.00,,,0.68,Wunderground v.1.15,2013-03-10 17:35:00,
2013-03-10 12:37:00,61.0,33.1,29.88,NNE,27,9.0,25.0,35,0.00,,,0.68,Wunderground v.1.15,2013-03-10 17:37:00,
2013-03-10 12:39:00,61.3,32.7,29.88,NNW,343,9.0,25.0,34,0.00,,,0.68,Wunderground v.1.15,2013-03-10 17:39:00,
2013-03-10 12:41:00,61.2,32.6,29.88,NW,311,9.0,18.0,34,0.00,,,0.68,Wunderground v.1.15,2013-03-10 17:41:00,
2013-03-10 12:42:00,61.2,32.6,29.88,NW,305,10.0,18.0,34,0.00,,,0.68,Wunderground v.1.15,2013-03-10 17:42:00,
2013-03-10 12:47:00,61.0,31.7,29.88,NNW,329,11.0,18.0,33,0.00,,,0.68,Wunderground v.1.15,2013-03-10 17:47:00,
2013-03-10 12:49:00,61.0,32.4,29.88,North,349,11.0,18.0,34,0.00,,,0.68,Wunderground v.1.15,2013-03-10 17:49:00,
2013-03-10 12:50:00,61.2,31.8,29.88,North,3,11.0,19.0,33,0.00,,,0.68,Wunderground v.1.15,2013-03-10 17:50:00,
2013-03-10 12:51:00,61.2,33.3,29.88,NNW,346,11.0,11.0,35,0.00,,,0.68,Wunderground v.1.15,2013-03-10 17:51:00,
2013-03-10 12:56:00,61.3,32.7,29.88,NW,323,10.0,19.0,34,0.00,,,0.68,Wunderground v.1.15,2013-03-10 17:56:00,
2013-03-10 12:57:00,61.5,32.8,29.88,North,11,10.0,19.0,34,0.00,,,0.68,Wunderground v.1.15,2013-03-10 17:57:00,
2013-03-10 12:58:00,61.5,32.8,29.88,NNW,346,10.0,19.0,34,0.00,,,0.68,Wunderground v.1.15,2013-03-10 17:58:00,
2013-03-10 12:59:00,61.5,32.1,29.88,North,354,10.0,19.0,33,0.00,,,0.68,Wunderground v.1.15,2013-03-10 17:59:00,
2013-03-10 13:05:00,62.0,31.8,29.88,NNW,335,11.0,19.0,32,0.00,,,0.68,Wunderground v.1.15,2013-03-10 18:05:00,
2013-03-10 13:07:00,62.0,32.5,29.88,WNW,291,11.0,19.0,33,0.00,,,0.68,Wunderground v.1.15,2013-03-10 18:07:00,
2013-03-10 13:09:00,62.0,31.0,29.88,NW,319,12.0,19.0,31,0.00,,,0.68,Wunderground v.1.15,2013-03-10 18:09:00,
2013-03-10 13:10:00,62.0,31.0,29.88,NNW,333,13.0,13.0,31,0.00,,,0.68,Wunderground v.1.15,2013-03-10 18:10:00,
2013-03-10 13:14:00,62.1,31.1,29.88,NNE,21,12.0,20.0,31,0.00,,,0.68,Wunderground v.1.15,2013-03-10 18:14:00,
2013-03-10 13:15:00,62.3,31.3,29.88,NW,318,11.0,20.0,31,0.00,,,0.68,Wunderground v.1.15,2013-03-10 18:15:00,
2013-03-10 13:17:00,62.3,31.3,29.87,North,354,12.0,20.0,31,0.00,,,0.68,Wunderground v.1.15,2013-03-10 18:17:00,
2013-03-10 13:19:00,62.3,30.4,29.87,NNW,336,11.0,20.0,30,0.00,,,0.68,Wunderground v.1.15,2013-03-10 18:19:00,
2013-03-10 13:21:00,62.1,30.3,29.87,NNE,16,11.0,24.0,30,0.00,,,0.68,Wunderground v.1.15,2013-03-10 18:21:00,
2013-03-10 13:23:00,62.1,30.3,29.87,NW,308,11.0,24.0,30,0.00,,,0.68,Wunderground v.1.15,2013-03-10 18:23:00,
2013-03-10 13:24:00,62.1,30.3,29.87,WNW,301,12.0,24.0,30,0.00,,,0.68,Wunderground v.1.15,2013-03-10 18:24:00,
2013-03-10 13:29:00,62.1,29.4,29.87,NW,319,12.0,24.0,29,0.00,,,0.68,Wunderground v.1.15,2013-03-10 18:29:00,
2013-03-10 13:30:00,62.1,31.1,29.87,NNW,346,11.0,25.0,31,0.00,,,0.68,Wunderground v.1.15,2013-03-10 18:30:00,
2013-03-10 13:31:00,62.1,31.1,29.87,NW,315,11.0,25.0,31,0.00,,,0.68,Wunderground v.1.15,2013-03-10 18:31:00,
2013-03-10 13:34:00,62.1,31.1,29.87,NW,318,10.0,25.0,31,0.00,,,0.68,Wunderground v.1.15,2013-03-10 18:34:00,
2013-03-10 13:35:00,62.1,31.1,29.87,ENE,62,10.0,25.0,31,0.00,,,0.68,Wunderground v.1.15,2013-03-10 18:35:00,
2013-03-10 13:36:00,62.3,31.3,29.87,NW,320,10.0,25.0,31,0.00,,,0.68,Wunderground v.1.15,2013-03-10 18:36:00,
2013-03-10 13:39:00,62.4,32.1,29.87,NNW,344,9.0,25.0,32,0.00,,,0.68,Wunderground v.1.15,2013-03-10 18:39:00,
2013-03-10 13:40:00,62.6,31.5,29.87,North,0,9.0,25.0,31,0.00,,,0.68,Wunderground v.1.15,2013-03-10 18:40:00,
2013-03-10 13:41:00,62.6,32.3,29.87,NW,326,9.0,21.0,32,0.00,,,0.68,Wunderground v.1.15,2013-03-10 18:41:00,
2013-03-10 13:46:00,62.6,31.5,29.87,NNW,329,11.0,21.0,31,0.00,,,0.68,Wunderground v.1.15,2013-03-10 18:46:00,
2013-03-10 13:47:00,62.6,32.3,29.87,NW,323,11.0,21.0,32,0.00,,,0.68,Wunderground v.1.15,2013-03-10 18:47:00,
2013-03-10 13:49:00,62.6,29.9,29.87,NW,313,12.0,21.0,29,0.00,,,0.68,Wunderground v.1.15,2013-03-10 18:49:00,
2013-03-10 13:53:00,62.6,29.9,29.87,NNE,24,12.0,18.0,29,0.00,,,0.68,Wunderground v.1.15,2013-03-10 18:53:00,
2013-03-10 13:54:00,62.6,29.9,29.87,NW,306,12.0,18.0,29,0.00,,,0.68,Wunderground v.1.15,2013-03-10 18:54:00,
2013-03-10 13:55:00,62.6,29.9,29.87,NNW,330,12.0,18.0,29,0.00,,,0.68,Wunderground v.1.15,2013-03-10 18:55:00,
2013-03-10 13:58:00,62.7,30.8,29.87,NW,320,11.0,18.0,30,0.00,,,0.68,Wunderground v.1.15,2013-03-10 18:58:00,
2013-03-10 13:59:00,62.9,31.0,29.87,NW,326,11.0,18.0,30,0.00,,,0.68,Wunderground v.1.15,2013-03-10 18:59:00,
2013-03-10 14:02:00,63.1,31.1,29.86,NNW,337,10.0,18.0,30,0.00,,,0.68,Wunderground v.1.15,2013-03-10 19:02:00,
2013-03-10 14:05:00,62.9,31.0,29.86,NW,304,10.0,28.0,30,0.00,,,0.68,Wunderground v.1.15,2013-03-10 19:05:00,
2013-03-10 14:07:00,63.1,29.4,29.86,NNW,340,11.0,28.0,28,0.00,,,0.68,Wunderground v.1.15,2013-03-10 19:07:00,
2013-03-10 14:10:00,63.4,29.7,29.86,NNW,332,11.0,28.0,28,0.00,,,0.68,Wunderground v.1.15,2013-03-10 19:10:00,
2013-03-10 14:16:00,63.2,29.5,29.86,WNW,302,12.0,20.0,28,0.00,,,0.68,Wunderground v.1.15,2013-03-10 19:16:00,
2013-03-10 14:17:00,63.2,29.5,29.86,NW,315,12.0,20.0,28,0.00,,,0.68,Wunderground v.1.15,2013-03-10 19:17:00,
2013-03-10 14:19:00,63.5,29.8,29.86,North,0,12.0,20.0,28,0.00,,,0.68,Wunderground v.1.15,2013-03-10 19:19:00,
2013-03-10 14:22:00,63.5,28.9,29.86,North,0,12.0,22.0,27,0.00,,,0.68,Wunderground v.1.15,2013-03-10 19:22:00,
2013-03-10 14:24:00,63.7,30.0,29.86,NNE,27,11.0,22.0,28,0.00,,,0.68,Wunderground v.1.15,2013-03-10 19:24:00,
2013-03-10 14:26:00,63.5,29.8,29.86,North,10,11.0,22.0,28,0.00,,,0.68,Wunderground v.1.15,2013-03-10 19:26:00,
2013-03-10 14:27:00,63.5,29.8,29.86,North,0,11.0,22.0,28,0.00,,,0.68,Wunderground v.1.15,2013-03-10 19:27:00,
2013-03-10 14:28:00,63.7,29.1,29.86,NNW,330,10.0,22.0,27,0.00,,,0.68,Wunderground v.1.15,2013-03-10 19:28:00,
2013-03-10 14:30:00,63.9,29.2,29.86,NNE,20,11.0,22.0,27,0.00,,,0.68,Wunderground v.1.15,2013-03-10 19:30:00,
2013-03-10 14:33:00,63.9,29.2,29.86,NNW,339,11.0,21.0,27,0.00,,,0.68,Wunderground v.1.15,2013-03-10 19:33:00,
2013-03-10 14:36:00,63.9,30.1,29.86,North,359,11.0,21.0,28,0.00,,,0.68,Wunderground v.1.15,2013-03-10 19:36:00,
2013-03-10 14:38:00,63.9,30.1,29.86,North,356,12.0,21.0,28,0.00,,,0.68,Wunderground v.1.15,2013-03-10 19:38:00,
2013-03-10 14:39:00,63.9,30.1,29.86,NNW,333,12.0,21.0,28,0.00,,,0.68,Wunderground v.1.15,2013-03-10 19:39:00,
2013-03-10 14:40:00,63.7,30.0,29.86,NNW,339,12.0,12.0,28,0.00,,,0.68,Wunderground v.1.15,2013-03-10 19:40:00,
2013-03-10 14:43:00,63.9,30.1,29.86,NW,325,11.0,20.0,28,0.00,,,0.68,Wunderground v.1.15,2013-03-10 19:43:00,
2013-03-10 14:45:00,63.9,30.1,29.86,NNW,328,11.0,20.0,28,0.00,,,0.68,Wunderground v.1.15,2013-03-10 19:45:00,
2013-03-10 14:46:00,63.9,29.2,29.86,NW,309,11.0,20.0,27,0.00,,,0.68,Wunderground v.1.15,2013-03-10 19:46:00,
2013-03-10 14:48:00,63.7,29.1,29.86,North,0,12.0,20.0,27,0.00,,,0.68,Wunderground v.1.15,2013-03-10 19:48:00,
2013-03-10 14:49:00,63.5,29.8,29.86,WNW,302,11.0,20.0,28,0.00,,,0.68,Wunderground v.1.15,2013-03-10 19:49:00,
2013-03-10 14:54:00,63.5,29.8,29.86,NNW,339,12.0,24.0,28,0.00,,,0.68,Wunderground v.1.15,2013-03-10 19:54:00,
2013-03-10 14:55:00,63.5,30.6,29.86,NW,315,13.0,24.0,29,0.00,,,0.68,Wunderground v.1.15,2013-03-10 19:55:00,
2013-03-10 14:57:00,63.7,30.8,29.86,NW,305,11.0,24.0,29,0.00,,,0.68,Wunderground v.1.15,2013-03-10 19:57:00,
2013-03-10 15:00:00,64.2,30.4,29.86,NNW,346,9.0,9.0,28,0.00,,,0.68,Wunderground v.1.15,2013-03-10 20:00:00,
2013-03-10 15:02:00,64.3,31.3,29.86,NW,325,8.0,19.0,29,0.00,,,0.68,Wunderground v.1.15,2013-03-10 20:02:00,
2013-03-10 15:03:00,64.5,30.6,29.86,North,1,9.0,24.0,28,0.00,,,0.68,Wunderground v.1.15,2013-03-10 20:03:00,
2013-03-10 15:08:00,64.3,30.5,29.86,North,0,9.0,24.0,28,0.00,,,0.68,Wunderground v.1.15,2013-03-10 20:08:00,
2013-03-10 15:09:00,64.3,30.5,29.86,NNW,330,10.0,24.0,28,0.00,,,0.68,Wunderground v.1.15,2013-03-10 20:09:00,
2013-03-10 15:10:00,64.2,30.4,29.86,North,359,10.0,24.0,28,0.00,,,0.68,Wunderground v.1.15,2013-03-10 20:10:00,
2013-03-10 15:12:00,64.2,30.4,29.86,NNW,333,11.0,19.0,28,0.00,,,0.68,Wunderground v.1.15,2013-03-10 20:12:00,
2013-03-10 15:13:00,64.2,30.4,29.86,NNW,343,11.0,19.0,28,0.00,,,0.68,Wunderground v.1.15,2013-03-10 20:13:00,
2013-03-10 15:16:00,64.2,31.3,29.86,NW,316,10.0,19.0,29,0.00,,,0.68,Wunderground v.1.15,2013-03-10 20:16:00,
2013-03-10 15:18:00,64.3,32.2,29.86,NE,42,9.0,19.0,30,0.00,,,0.68,Wunderground v.1.15,2013-03-10 20:18:00,
2013-03-10 15:20:00,64.5,31.5,29.86,NNW,343,8.0,19.0,29,0.00,,,0.68,Wunderground v.1.15,2013-03-10 20:20:00,
2013-03-10 15:24:00,64.5,30.6,29.86,NNW,332,9.0,19.0,28,0.00,,,0.68,Wunderground v.1.15,2013-03-10 20:24:00,
2013-03-10 15:26:00,64.3,30.5,29.86,North,350,10.0,19.0,28,0.00,,,0.68,Wunderground v.1.15,2013-03-10 20:26:00,
2013-03-10 15:28:00,64.5,30.6,29.86,NNW,342,11.0,19.0,28,0.00,,,0.68,Wunderground v.1.15,2013-03-10 20:28:00,
2013-03-10 15:29:00,64.5,30.6,29.86,NW,319,11.0,19.0,28,0.00,,,0.68,Wunderground v.1.15,2013-03-10 20:29:00,
2013-03-10 15:34:00,64.3,30.5,29.85,NW,315,11.0,19.0,28,0.00,,,0.68,Wunderground v.1.15,2013-03-10 20:34:00,
2013-03-10 15:35:00,64.3,30.5,29.85,NW,309,11.0,19.0,28,0.00,,,0.68,Wunderground v.1.15,2013-03-10 20:35:00,
2013-03-10 15:38:00,64.2,30.4,29.85,NNW,328,11.0,21.0,28,0.00,,,0.68,Wunderground v.1.15,2013-03-10 20:38:00,
2013-03-10 15:41:00,64.2,30.4,29.85,NW,309,11.0,20.0,28,0.00,,,0.68,Wunderground v.1.15,2013-03-10 20:41:00,
2013-03-10 15:43:00,64.0,30.2,29.85,North,349,11.0,20.0,28,0.00,,,0.68,Wunderground v.1.15,2013-03-10 20:43:00,
2013-03-10 15:48:00,64.3,30.5,29.85,NW,312,10.0,20.0,28,0.00,,,0.68,Wunderground v.1.15,2013-03-10 20:48:00,
2013-03-10 15:49:00,64.5,30.6,29.85,North,0,10.0,20.0,28,0.00,,,0.68,Wunderground v.1.15,2013-03-10 20:49:00,
2013-03-10 15:50:00,64.7,30.8,29.85,North,356,10.0,21.0,28,0.00,,,0.68,Wunderground v.1.15,2013-03-10 20:50:00,
2013-03-10 15:53:00,64.7,30.8,29.85,NE,40,9.0,21.0,28,0.00,,,0.68,Wunderground v.1.15,2013-03-10 20:53:00,
2013-03-10 15:55:00,64.8,30.9,29.85,North,8,9.0,21.0,28,0.00,,,0.68,Wunderground v.1.15,2013-03-10 20:55:00,
2013-03-10 15:58:00,64.7,30.8,29.85,North,0,10.0,21.0,28,0.00,,,0.68,Wunderground v.1.15,2013-03-10 20:58:00,
2013-03-10 15:59:00,64.7,30.8,29.85,NW,320,10.0,21.0,28,0.00,,,0.68,Wunderground v.1.15,2013-03-10 20:59:00,
2013-03-10 16:00:00,64.7,30.8,29.85,NW,325,10.0,10.0,28,0.00,,,0.68,Wunderground v.1.15,2013-03-10 21:00:00,
2013-03-10 16:04:00,64.7,30.8,29.86,North,4,9.0,16.0,28,0.00,,,0.68,Wunderground v.1.15,2013-03-10 21:04:00,
2013-03-10 16:06:00,64.8,30.9,29.86,North,357,8.0,16.0,28,0.00,,,0.68,Wunderground v.1.15,2013-03-10 21:06:00,
2013-03-10 16:07:00,64.8,30.9,29.86,North,354,7.0,16.0,28,0.00,,,0.68,Wunderground v.1.15,2013-03-10 21:07:00,
2013-03-10 16:09:00,64.8,30.9,29.86,NNE,18,7.0,16.0,28,0.00,,,0.68,Wunderground v.1.15,2013-03-10 21:09:00,
2013-03-10 16:13:00,65.0,30.2,29.86,North,11,8.0,20.0,27,0.00,,,0.68,Wunderground v.1.15,2013-03-10 21:13:00,
2013-03-10 16:14:00,64.8,30.9,29.86,North,0,8.0,20.0,28,0.00,,,0.68,Wunderground v.1.15,2013-03-10 21:14:00,
2013-03-10 16:15:00,64.8,30.9,29.86,NNW,344,8.0,20.0,28,0.00,,,0.68,Wunderground v.1.15,2013-03-10 21:15:00,
2013-03-10 16:16:00,64.8,30.9,29.85,NNW,333,7.0,20.0,28,0.00,,,0.68,Wunderground v.1.15,2013-03-10 21:16:00,
2013-03-10 16:19:00,65.0,31.1,29.85,NW,323,9.0,20.0,28,0.00,,,0.68,Wunderground v.1.15,2013-03-10 21:19:00,
2013-03-10 16:20:00,64.8,30.0,29.85,North,0,9.0,16.0,27,0.00,,,0.68,Wunderground v.1.15,2013-03-10 21:20:00,
2013-03-10 16:22:00,64.8,30.9,29.85,NNE,13,9.0,16.0,28,0.00,,,0.68,Wunderground v.1.15,2013-03-10 21:22:00,
2013-03-10 16:26:00,65.0,31.1,29.85,NNE,17,10.0,16.0,28,0.00,,,0.68,Wunderground v.1.15,2013-03-10 21:26:00,
2013-03-10 16:27:00,65.0,31.1,29.85,NW,320,10.0,16.0,28,0.00,,,0.68,Wunderground v.1.15,2013-03-10 21:27:00,
2013-03-10 16:28:00,65.0,31.1,29.85,NNW,343,10.0,16.0,28,0.00,,,0.68,Wunderground v.1.15,2013-03-10 21:28:00,
2013-03-10 16:30:00,65.0,31.1,29.85,NW,322,10.0,10.0,28,0.00,,,0.68,Wunderground v.1.15,2013-03-10 21:30:00,
2013-03-10 16:32:00,65.2,31.2,29.86,NNW,339,10.0,19.0,28,0.00,,,0.68,Wunderground v.1.15,2013-03-10 21:32:00,
2013-03-10 16:34:00,65.2,31.2,29.86,NNW,328,9.0,19.0,28,0.00,,,0.68,Wunderground v.1.15,2013-03-10 21:34:00,
2013-03-10 16:35:00,65.2,31.2,29.86,NNE,18,9.0,19.0,28,0.00,,,0.68,Wunderground v.1.15,2013-03-10 21:35:00,
2013-03-10 16:37:00,65.2,31.2,29.86,NNW,347,8.0,19.0,28,0.00,,,0.68,Wunderground v.1.15,2013-03-10 21:37:00,
2013-03-10 16:39:00,65.2,31.2,29.86,North,357,8.0,19.0,28,0.00,,,0.68,Wunderground v.1.15,2013-03-10 21:39:00,
2013-03-10 16:40:00,65.0,31.1,29.86,North,0,8.0,21.0,28,0.00,,,0.68,Wunderground v.1.15,2013-03-10 21:40:00,
2013-03-10 16:42:00,64.8,30.9,29.86,NW,313,9.0,21.0,28,0.00,,,0.68,Wunderground v.1.15,2013-03-10 21:42:00,
2013-03-10 16:45:00,64.8,30.0,29.86,North,0,10.0,21.0,27,0.00,,,0.68,Wunderground v.1.15,2013-03-10 21:45:00,
2013-03-10 16:47:00,65.0,30.2,29.86,North,0,10.0,21.0,27,0.00,,,0.68,Wunderground v.1.15,2013-03-10 21:47:00,
2013-03-10 16:50:00,65.2,31.2,29.86,NNW,330,8.0,8.0,28,0.00,,,0.68,Wunderground v.1.15,2013-03-10 21:50:00,
2013-03-10 16:52:00,65.2,30.3,29.86,NE,35,7.0,27.0,27,0.00,,,0.68,Wunderground v.1.15,2013-03-10 21:52:00,
2013-03-10 16:53:00,65.2,31.2,29.86,North,10,7.0,27.0,28,0.00,,,0.68,Wunderground v.1.15,2013-03-10 21:53:00,
2013-03-10 16:58:00,65.0,31.1,29.86,NNE,23,7.0,27.0,28,0.00,,,0.68,Wunderground v.1.15,2013-03-10 21:58:00,
2013-03-10 16:59:00,64.8,30.9,29.86,North,0,8.0,27.0,28,0.00,,,0.68,Wunderground v.1.15,2013-03-10 21:59:00,
2013-03-10 17:00:00,64.8,31.8,29.85,NE,35,8.0,14.0,29,0.00,,,0.68,Wunderground v.1.15,2013-03-10 22:00:00,
2013-03-10 17:03:00,64.8,31.8,29.85,NNW,328,8.0,14.0,29,0.00,,,0.68,Wunderground v.1.15,2013-03-10 22:03:00,
2013-03-10 17:05:00,64.8,31.8,29.85,North,4,9.0,14.0,29,0.00,,,0.68,Wunderground v.1.15,2013-03-10 22:05:00,
2013-03-10 17:07:00,64.8,30.9,29.85,North,0,9.0,14.0,28,0.00,,,0.68,Wunderground v.1.15,2013-03-10 22:07:00,
2013-03-10 17:10:00,64.5,31.5,29.85,NNE,24,10.0,19.0,29,0.00,,,0.68,Wunderground v.1.15,2013-03-10 22:10:00,
2013-03-10 17:11:00,64.5,31.5,29.85,NE,35,10.0,10.0,29,0.00,,,0.68,Wunderground v.1.15,2013-03-10 22:11:00,
2013-03-10 17:12:00,64.3,31.3,29.85,North,6,10.0,19.0,29,0.00,,,0.68,Wunderground v.1.15,2013-03-10 22:12:00,
2013-03-10 17:13:00,64.3,31.3,29.85,North,10,10.0,19.0,29,0.00,,,0.68,Wunderground v.1.15,2013-03-10 22:13:00,
2013-03-10 17:16:00,64.3,31.3,29.86,NE,35,9.0,19.0,29,0.00,,,0.68,Wunderground v.1.15,2013-03-10 22:16:00,
2013-03-10 17:22:00,64.5,30.6,29.86,NW,319,9.0,17.0,28,0.00,,,0.68,Wunderground v.1.15,2013-03-10 22:22:00,
2013-03-10 17:23:00,64.5,31.5,29.86,NNW,330,9.0,17.0,29,0.00,,,0.68,Wunderground v.1.15,2013-03-10 22:23:00,
2013-03-10 17:25:00,64.3,30.5,29.86,North,6,9.0,17.0,28,0.00,,,0.68,Wunderground v.1.15,2013-03-10 22:25:00,
2013-03-10 17:28:00,64.3,31.3,29.86,NW,316,9.0,17.0,29,0.00,,,0.68,Wunderground v.1.15,2013-03-10 22:28:00,
2013-03-10 17:30:00,64.5,32.4,29.86,NNW,340,9.0,18.0,30,0.00,,,0.68,Wunderground v.1.15,2013-03-10 22:30:00,
2013-03-10 17:35:00,64.8,31.8,29.86,NNW,340,8.0,18.0,29,0.00,,,0.68,Wunderground v.1.15,2013-03-10 22:35:00,
2013-03-10 17:37:00,64.8,31.8,29.86,North,3,8.0,18.0,29,0.00,,,0.68,Wunderground v.1.15,2013-03-10 22:37:00,
2013-03-10 17:40:00,64.5,30.6,29.86,North,357,8.0,18.0,28,0.00,,,0.68,Wunderground v.1.15,2013-03-10 22:40:00,
2013-03-10 17:41:00,64.3,30.5,29.86,NE,44,8.0,16.0,28,0.00,,,0.68,Wunderground v.1.15,2013-03-10 22:41:00,
2013-03-10 17:43:00,64.2,30.4,29.86,NNE,16,9.0,16.0,28,0.00,,,0.68,Wunderground v.1.15,2013-03-10 22:43:00,
2013-03-10 17:44:00,64.0,30.2,29.86,NNW,342,9.0,16.0,28,0.00,,,0.68,Wunderground v.1.15,2013-03-10 22:44:00,
2013-03-10 17:47:00,64.0,30.2,29.86,NW,319,10.0,16.0,28,0.00,,,0.68,Wunderground v.1.15,2013-03-10 22:47:00,
2013-03-10 17:52:00,63.7,30.0,29.86,NNE,21,10.0,21.0,28,0.00,,,0.68,Wunderground v.1.15,2013-03-10 22:52:00,
2013-03-10 17:53:00,63.7,30.0,29.86,NNW,344,9.0,21.0,28,0.00,,,0.68,Wunderground v.1.15,2013-03-10 22:53:00,
2013-03-10 17:54:00,63.7,30.0,29.86,North,6,9.0,21.0,28,0.00,,,0.68,Wunderground v.1.15,2013-03-10 22:54:00,
2013-03-10 17:55:00,63.7,30.8,29.86,North,3,9.0,21.0,29,0.00,,,0.68,Wunderground v.1.15,2013-03-10 22:55:00,
2013-03-10 17:59:00,63.5,29.8,29.86,North,356,8.0,21.0,28,0.00,,,0.68,Wunderground v.1.15,2013-03-10 22:59:00,
2013-03-10 18:03:00,63.7,30.8,29.87,NW,323,8.0,18.0,29,0.00,,,0.68,Wunderground v.1.15,2013-03-10 23:03:00,
2013-03-10 18:04:00,63.5,30.6,29.87,NNE,14,8.0,18.0,29,0.00,,,0.68,Wunderground v.1.15,2013-03-10 23:04:00,
2013-03-10 18:06:00,63.5,30.6,29.87,NNW,328,8.0,18.0,29,0.00,,,0.68,Wunderground v.1.15,2013-03-10 23:06:00,
2013-03-10 18:09:00,63.4,30.6,29.87,North,354,8.0,18.0,29,0.00,,,0.68,Wunderground v.1.15,2013-03-10 23:09:00,
2013-03-10 18:10:00,63.2,30.4,29.87,North,0,8.0,8.0,29,0.00,,,0.68,Wunderground v.1.15,2013-03-10 23:10:00,
2013-03-10 18:11:00,63.2,31.2,29.87,NNE,20,8.0,11.0,30,0.00,,,0.68,Wunderground v.1.15,2013-03-10 23:11:00,
2013-03-10 18:12:00,63.4,32.2,29.87,NNW,342,8.0,17.0,31,0.00,,,0.68,Wunderground v.1.15,2013-03-10 23:12:00,
2013-03-10 18:17:00,63.7,30.8,29.88,North,357,7.0,17.0,29,0.00,,,0.68,Wunderground v.1.15,2013-03-10 23:17:00,
2013-03-10 18:18:00,63.7,30.8,29.88,North,0,7.0,17.0,29,0.00,,,0.68,Wunderground v.1.15,2013-03-10 23:18:00,
2013-03-10 18:19:00,63.5,30.6,29.88,North,354,7.0,17.0,29,0.00,,,0.68,Wunderground v.1.15,2013-03-10 23:19:00,
2013-03-10 18:20:00,63.4,31.4,29.88,North,359,7.0,14.0,30,0.00,,,0.68,Wunderground v.1.15,2013-03-10 23:20:00,
2013-03-10 18:25:00,63.4,32.2,29.88,NE,44,6.0,14.0,31,0.00,,,0.68,Wunderground v.1.15,2013-03-10 23:25:00,
2013-03-10 18:26:00,63.4,31.4,29.88,North,4,6.0,14.0,30,0.00,,,0.68,Wunderground v.1.15,2013-03-10 23:26:00,
2013-03-10 18:27:00,63.4,31.4,29.88,North,0,6.0,14.0,30,0.00,,,0.68,Wunderground v.1.15,2013-03-10 23:27:00,
2013-03-10 18:28:00,63.2,30.4,29.88,NNE,31,6.0,14.0,29,0.00,,,0.68,Wunderground v.1.15,2013-03-10 23:28:00,
2013-03-10 18:32:00,63.1,30.3,29.88,North,353,7.0,15.0,29,0.00,,,0.68,Wunderground v.1.15,2013-03-10 23:32:00,
2013-03-10 18:33:00,62.9,30.1,29.88,North,352,7.0,15.0,29,0.00,,,0.68,Wunderground v.1.15,2013-03-10 23:33:00,
2013-03-10 18:35:00,62.9,30.1,29.88,North,11,7.0,15.0,29,0.00,,,0.68,Wunderground v.1.15,2013-03-10 23:35:00,
2013-03-10 18:36:00,62.9,30.1,29.88,NNE,32,7.0,15.0,29,0.00,,,0.68,Wunderground v.1.15,2013-03-10 23:36:00,
2013-03-10 18:38:00,62.6,29.9,29.88,North,0,8.0,15.0,29,0.00,,,0.68,Wunderground v.1.15,2013-03-10 23:38:00,
2013-03-10 18:42:00,62.4,30.5,29.88,North,0,8.0,17.0,30,0.00,,,0.68,Wunderground v.1.15,2013-03-10 23:42:00,
2013-03-10 18:43:00,62.6,30.7,29.88,North,0,8.0,17.0,30,0.00,,,0.68,Wunderground v.1.15,2013-03-10 23:43:00,
2013-03-10 18:45:00,62.6,30.7,29.88,North,0,8.0,17.0,30,0.00,,,0.68,Wunderground v.1.15,2013-03-10 23:45:00,
2013-03-10 18:48:00,62.6,29.9,29.89,NNW,343,7.0,17.0,29,0.00,,,0.68,Wunderground v.1.15,2013-03-10 23:48:00,
2013-03-10 18:51:00,62.4,29.7,29.89,NNW,332,7.0,17.0,29,0.00,,,0.68,Wunderground v.1.15,2013-03-10 23:51:00,
2013-03-10 18:52:00,62.4,29.7,29.89,North,354,8.0,17.0,29,0.00,,,0.68,Wunderground v.1.15,2013-03-10 23:52:00,
2013-03-10 18:55:00,62.3,29.6,29.89,North,4,7.0,17.0,29,0.00,,,0.68,Wunderground v.1.15,2013-03-10 23:55:00,
2013-03-10 18:57:00,62.3,30.4,29.89,North,1,7.0,17.0,30,0.00,,,0.68,Wunderground v.1.15,2013-03-10 23:57:00,
2013-03-10 18:58:00,62.3,30.4,29.89,WNW,301,6.0,17.0,30,0.00,,,0.68,Wunderground v.1.15,2013-03-10 23:58:00,
2013-03-10 19:01:00,62.3,29.6,29.89,North,349,7.0,7.0,29,0.00,,,0.68,Wunderground v.1.15,2013-03-11 00:01:00,
2013-03-10 19:02:00,62.3,30.4,29.89,NNW,328,6.0,19.0,30,0.00,,,0.68,Wunderground v.1.15,2013-03-11 00:02:00,
2013-03-10 19:03:00,62.3,29.6,29.89,NW,315,6.0,19.0,29,0.00,,,0.68,Wunderground v.1.15,2013-03-11 00:03:00,
2013-03-10 19:07:00,62.0,29.3,29.89,North,8,7.0,19.0,29,0.00,,,0.68,Wunderground v.1.15,2013-03-11 00:07:00,
2013-03-10 19:09:00,62.0,29.3,29.89,NNW,336,7.0,19.0,29,0.00,,,0.68,Wunderground v.1.15,2013-03-11 00:09:00,
2013-03-10 19:10:00,61.8,30.0,29.89,NNE,13,6.0,14.0,30,0.00,,,0.68,Wunderground v.1.15,2013-03-11 00:10:00,
2013-03-10 19:13:00,61.6,29.0,29.89,NE,48,7.0,14.0,29,0.00,,,0.68,Wunderground v.1.15,2013-03-11 00:13:00,
2013-03-10 19:14:00,61.6,29.8,29.89,North,354,7.0,14.0,30,0.00,,,0.68,Wunderground v.1.15,2013-03-11 00:14:00,
2013-03-10 19:18:00,61.3,29.6,29.90,NNE,13,7.0,14.0,30,0.00,,,0.68,Wunderground v.1.15,2013-03-11 00:18:00,
2013-03-10 19:20:00,61.3,30.4,29.90,North,350,7.0,7.0,31,0.00,,,0.68,Wunderground v.1.15,2013-03-11 00:20:00,
2013-03-10 19:21:00,61.3,30.4,29.90,NE,49,7.0,12.0,31,0.00,,,0.68,Wunderground v.1.15,2013-03-11 00:21:00,
2013-03-10 19:25:00,61.2,30.3,29.90,NNW,333,6.0,12.0,31,0.00,,,0.68,Wunderground v.1.15,2013-03-11 00:25:00,
2013-03-10 19:27:00,61.0,30.9,29.90,NNW,333,5.0,12.0,32,0.00,,,0.68,Wunderground v.1.15,2013-03-11 00:27:00,
2013-03-10 19:28:00,61.0,30.9,29.90,NNW,333,5.0,12.0,32,0.00,,,0.68,Wunderground v.1.15,2013-03-11 00:28:00,
2013-03-10 19:31:00,60.9,31.6,29.91,NNW,333,4.0,6.0,33,0.00,,,0.68,Wunderground v.1.15,2013-03-11 00:31:00,
2013-03-10 19:32:00,60.7,31.4,29.91,NNW,336,4.0,16.0,33,0.00,,,0.68,Wunderground v.1.15,2013-03-11 00:32:00,
2013-03-10 19:33:00,60.7,31.4,29.91,North,0,4.0,16.0,33,0.00,,,0.68,Wunderground v.1.15,2013-03-11 00:33:00,
2013-03-10 19:34:00,60.5,31.2,29.91,North,353,4.0,16.0,33,0.00,,,0.68,Wunderground v.1.15,2013-03-11 00:34:00,
2013-03-10 19:38:00,60.4,31.1,29.91,NNE,14,4.0,16.0,33,0.00,,,0.68,Wunderground v.1.15,2013-03-11 00:38:00,
2013-03-10 19:39:00,60.2,31.7,29.91,NNW,337,4.0,16.0,34,0.00,,,0.68,Wunderground v.1.15,2013-03-11 00:39:00,
2013-03-10 19:41:00,60.1,31.6,29.91,North,0,4.0,4.0,34,0.00,,,0.68,Wunderground v.1.15,2013-03-11 00:41:00,
2013-03-10 19:43:00,59.9,31.4,29.91,NNW,347,4.0,9.0,34,0.00,,,0.68,Wunderground v.1.15,2013-03-11 00:43:00,
2013-03-10 19:44:00,59.9,31.4,29.91,NNW,347,4.0,9.0,34,0.00,,,0.68,Wunderground v.1.15,2013-03-11 00:44:00,
2013-03-10 19:47:00,59.8,31.3,29.92,NNW,342,4.0,9.0,34,0.00,,,0.68,Wunderground v.1.15,2013-03-11 00:47:00,
2013-03-10 19:49:00,59.6,31.9,29.92,North,359,4.0,9.0,35,0.00,,,0.68,Wunderground v.1.15,2013-03-11 00:49:00,
2013-03-10 19:51:00,59.5,31.8,29.92,North,356,4.0,8.0,35,0.00,,,0.68,Wunderground v.1.15,2013-03-11 00:51:00,
2013-03-10 19:54:00,59.3,31.6,29.92,North,353,4.0,8.0,35,0.00,,,0.68,Wunderground v.1.15,2013-03-11 00:54:00,
2013-03-10 19:56:00,59.3,31.6,29.92,NNW,342,4.0,8.0,35,0.00,,,0.68,Wunderground v.1.15,2013-03-11 00:56:00,
2013-03-10 19:58:00,59.2,32.2,29.92,NNW,343,4.0,8.0,36,0.00,,,0.68,Wunderground v.1.15,2013-03-11 00:58:00,
2013-03-10 20:02:00,58.9,32.0,29.93,North,354,4.0,8.0,36,0.00,,,0.68,Wunderground v.1.15,2013-03-11 01:02:00,
2013-03-10 20:04:00,58.9,32.0,29.93,North,352,4.0,8.0,36,0.00,,,0.68,Wunderground v.1.15,2013-03-11 01:04:00,
2013-03-10 20:05:00,58.7,32.5,29.93,NNW,336,4.0,8.0,37,0.00,,,0.68,Wunderground v.1.15,2013-03-11 01:05:00,
2013-03-10 20:06:00,58.7,31.8,29.93,NNW,336,4.0,8.0,36,0.00,,,0.68,Wunderground v.1.15,2013-03-11 01:06:00,
2013-03-10 20:09:00,58.6,31.7,29.93,NNW,337,4.0,8.0,36,0.00,,,0.68,Wunderground v.1.15,2013-03-11 01:09:00,
2013-03-10 20:10:00,58.4,32.2,29.93,NNW,339,4.0,8.0,37,0.00,,,0.68,Wunderground v.1.15,2013-03-11 01:10:00,
2013-03-10 20:11:00,58.4,32.2,29.93,NNW,339,4.0,8.0,37,0.00,,,0.68,Wunderground v.1.15,2013-03-11 01:11:00,
2013-03-10 20:15:00,58.3,32.1,29.93,North,359,4.0,8.0,37,0.00,,,0.68,Wunderground v.1.15,2013-03-11 01:15:00,
2013-03-10 20:17:00,58.1,31.9,29.94,NNW,337,4.0,8.0,37,0.00,,,0.68,Wunderground v.1.15,2013-03-11 01:17:00,
2013-03-10 20:18:00,58.1,32.6,29.94,NNW,337,4.0,8.0,38,0.00,,,0.68,Wunderground v.1.15,2013-03-11 01:18:00,
2013-03-10 20:21:00,58.0,31.8,29.94,NNW,343,5.0,7.0,37,0.00,,,0.68,Wunderground v.1.15,2013-03-11 01:21:00,
2013-03-10 20:22:00,57.8,32.3,29.94,NNW,343,5.0,7.0,38,0.00,,,0.68,Wunderground v.1.15,2013-03-11 01:22:00,
2013-03-10 20:24:00,57.6,32.2,29.94,NNW,343,5.0,7.0,38,0.00,,,0.68,Wunderground v.1.15,2013-03-11 01:24:00,
2013-03-10 20:25:00,57.6,32.2,29.94,NNW,343,4.0,7.0,38,0.00,,,0.68,Wunderground v.1.15,2013-03-11 01:25:00,
2013-03-10 20:28:00,57.5,32.1,29.94,North,0,4.0,7.0,38,0.00,,,0.68,Wunderground v.1.15,2013-03-11 01:28:00,
2013-03-10 20:32:00,57.2,32.4,29.94,North,0,4.0,10.0,39,0.00,,,0.68,Wunderground v.1.15,2013-03-11 01:32:00,
2013-03-10 20:33:00,57.2,32.4,29.94,North,0,4.0,10.0,39,0.00,,,0.68,Wunderground v.1.15,2013-03-11 01:33:00,
2013-03-10 20:34:00,57.0,32.3,29.94,North,0,4.0,10.0,39,0.00,,,0.68,Wunderground v.1.15,2013-03-11 01:34:00,
2013-03-10 20:35:00,57.0,32.3,29.94,North,0,4.0,10.0,39,0.00,,,0.68,Wunderground v.1.15,2013-03-11 01:35:00,
2013-03-10 20:37:00,56.9,32.2,29.94,North,359,4.0,10.0,39,0.00,,,0.68,Wunderground v.1.15,2013-03-11 01:37:00,
2013-03-10 20:38:00,56.9,32.2,29.94,North,0,4.0,10.0,39,0.00,,,0.68,Wunderground v.1.15,2013-03-11 01:38:00,
2013-03-10 20:39:00,56.7,32.0,29.94,North,0,4.0,10.0,39,0.00,,,0.68,Wunderground v.1.15,2013-03-11 01:39:00,
2013-03-10 20:44:00,56.6,31.9,29.94,North,0,4.0,8.0,39,0.00,,,0.68,Wunderground v.1.15,2013-03-11 01:44:00,
2013-03-10 20:45:00,56.5,31.8,29.94,NNW,337,4.0,8.0,39,0.00,,,0.68,Wunderground v.1.15,2013-03-11 01:45:00,
2013-03-10 20:48:00,56.5,31.8,29.92,NNW,342,4.0,8.0,39,0.00,,,0.68,Wunderground v.1.15,2013-03-11 01:48:00,
2013-03-10 20:49:00,56.5,31.8,29.92,NE,56,4.0,8.0,39,0.00,,,0.68,Wunderground v.1.15,2013-03-11 01:49:00,
2013-03-10 20:51:00,56.5,31.8,29.92,North,0,4.0,4.0,39,0.00,,,0.68,Wunderground v.1.15,2013-03-11 01:51:00,
2013-03-10 20:53:00,56.3,31.6,29.92,North,0,4.0,7.0,39,0.00,,,0.68,Wunderground v.1.15,2013-03-11 01:53:00,
2013-03-10 20:56:00,56.3,31.6,29.92,North,353,4.0,7.0,39,0.00,,,0.68,Wunderground v.1.15,2013-03-11 01:56:00,
2013-03-10 20:58:00,56.2,31.5,29.92,North,354,4.0,7.0,39,0.00,,,0.68,Wunderground v.1.15,2013-03-11 01:58:00,
2013-03-10 21:02:00,56.0,31.4,29.93,NNW,337,4.0,7.0,39,0.00,,,0.68,Wunderground v.1.15,2013-03-11 02:02:00,
2013-03-10 21:04:00,55.9,31.9,29.93,NNW,339,4.0,7.0,40,0.00,,,0.68,Wunderground v.1.15,2013-03-11 02:04:00,
2013-03-10 21:05:00,55.9,31.9,29.93,North,356,4.0,7.0,40,0.00,,,0.68,Wunderground v.1.15,2013-03-11 02:05:00,
2013-03-10 21:07:00,55.7,31.7,29.93,North,0,5.0,7.0,40,0.00,,,0.68,Wunderground v.1.15,2013-03-11 02:07:00,
2013-03-10 21:09:00,55.7,31.7,29.93,NNW,330,5.0,7.0,40,0.00,,,0.68,Wunderground v.1.15,2013-03-11 02:09:00,
2013-03-10 21:10:00,55.6,32.2,29.93,NNW,330,4.0,7.0,41,0.00,,,0.68,Wunderground v.1.15,2013-03-11 02:10:00,
2013-03-10 21:12:00,55.6,32.2,29.93,NNW,333,4.0,5.0,41,0.00,,,0.68,Wunderground v.1.15,2013-03-11 02:12:00,
2013-03-10 21:17:00,55.3,32.0,29.94,NNW,335,3.0,7.0,41,0.00,,,0.68,Wunderground v.1.15,2013-03-11 02:17:00,
2013-03-10 21:18:00,55.3,32.0,29.94,NNW,335,3.0,7.0,41,0.00,,,0.68,Wunderground v.1.15,2013-03-11 02:18:00,
2013-03-10 21:23:00,55.1,31.8,29.94,NNW,343,3.0,8.0,41,0.00,,,0.68,Wunderground v.1.15,2013-03-11 02:23:00,
2013-03-10 21:25:00,55.1,31.8,29.94,NNW,346,3.0,8.0,41,0.00,,,0.68,Wunderground v.1.15,2013-03-11 02:25:00,
2013-03-10 21:26:00,55.1,31.8,29.94,NNW,346,3.0,8.0,41,0.00,,,0.68,Wunderground v.1.15,2013-03-11 02:26:00,
2013-03-10 21:30:00,55.0,31.7,29.94,North,349,3.0,8.0,41,0.00,,,0.68,Wunderground v.1.15,2013-03-11 02:30:00,
2013-03-10 21:32:00,55.0,31.7,29.96,North,349,3.0,7.0,41,0.00,,,0.68,Wunderground v.1.15,2013-03-11 02:32:00,
2013-03-10 21:33:00,55.0,31.7,29.96,North,349,3.0,7.0,41,0.00,,,0.68,Wunderground v.1.15,2013-03-11 02:33:00,
2013-03-10 21:34:00,55.0,32.3,29.96,North,349,3.0,7.0,42,0.00,,,0.68,Wunderground v.1.15,2013-03-11 02:34:00,
2013-03-10 21:37:00,54.8,32.1,29.96,NNW,346,3.0,7.0,42,0.00,,,0.68,Wunderground v.1.15,2013-03-11 02:37:00,
2013-03-10 21:41:00,54.7,32.0,29.96,NNW,347,3.0,7.0,42,0.00,,,0.68,Wunderground v.1.15,2013-03-11 02:41:00,
2013-03-10 21:42:00,54.7,32.0,29.96,NNW,346,3.0,7.0,42,0.00,,,0.68,Wunderground v.1.15,2013-03-11 02:42:00,
2013-03-10 21:44:00,54.5,31.9,29.96,NNW,346,3.0,7.0,42,0.00,,,0.68,Wunderground v.1.15,2013-03-11 02:44:00,
2013-03-10 21:47:00,54.5,31.9,29.98,NNW,346,3.0,7.0,42,0.00,,,0.68,Wunderground v.1.15,2013-03-11 02:47:00,
2013-03-10 21:49:00,54.5,31.9,29.98,NNW,346,3.0,7.0,42,0.00,,,0.68,Wunderground v.1.15,2013-03-11 02:49:00,
2013-03-10 21:54:00,54.4,32.3,29.98,NNW,346,2.0,7.0,43,0.00,,,0.68,Wunderground v.1.15,2013-03-11 02:54:00,
2013-03-10 21:55:00,54.4,31.8,29.98,NNW,346,2.0,7.0,42,0.00,,,0.68,Wunderground v.1.15,2013-03-11 02:55:00,
2013-03-10 21:59:00,54.2,32.2,29.98,NNW,346,2.0,7.0,43,0.00,,,0.68,Wunderground v.1.15,2013-03-11 02:59:00,
2013-03-10 22:01:00,54.1,32.1,30.00,NNW,346,2.0,2.0,43,0.00,,,0.68,Wunderground v.1.15,2013-03-11 03:01:00,
2013-03-10 22:02:00,54.1,32.1,30.00,NNW,346,2.0,6.0,43,0.00,,,0.68,Wunderground v.1.15,2013-03-11 03:02:00,
2013-03-10 22:03:00,54.1,32.1,30.00,NNW,346,2.0,6.0,43,0.00,,,0.68,Wunderground v.1.15,2013-03-11 03:03:00,
2013-03-10 22:06:00,54.1,32.1,30.00,NNW,346,2.0,6.0,43,0.00,,,0.68,Wunderground v.1.15,2013-03-11 03:06:00,
2013-03-10 22:08:00,53.9,31.9,30.00,NNW,346,2.0,6.0,43,0.00,,,0.68,Wunderground v.1.15,2013-03-11 03:08:00,
2013-03-10 22:09:00,53.9,31.9,30.00,NNW,346,2.0,6.0,43,0.00,,,0.68,Wunderground v.1.15,2013-03-11 03:09:00,
2013-03-10 22:13:00,53.8,32.4,30.00,NNW,346,2.0,6.0,44,0.00,,,0.68,Wunderground v.1.15,2013-03-11 03:13:00,
2013-03-10 22:14:00,53.8,31.8,30.00,NNW,346,2.0,6.0,43,0.00,,,0.68,Wunderground v.1.15,2013-03-11 03:14:00,
2013-03-10 22:18:00,53.6,32.2,30.01,NNW,346,1.0,6.0,44,0.00,,,0.68,Wunderground v.1.15,2013-03-11 03:18:00,
2013-03-10 22:20:00,53.5,32.1,30.01,NNW,346,1.0,6.0,44,0.00,,,0.68,Wunderground v.1.15,2013-03-11 03:20:00,
2013-03-10 22:22:00,53.5,32.1,30.01,NNW,346,1.0,3.0,44,0.00,,,0.68,Wunderground v.1.15,2013-03-11 03:22:00,
2013-03-10 22:25:00,53.3,32.5,30.01,NNW,346,1.0,3.0,45,0.00,,,0.68,Wunderground v.1.15,2013-03-11 03:25:00,
2013-03-10 22:30:00,53.1,32.3,30.01,NNW,346,1.0,3.0,45,0.00,,,0.68,Wunderground v.1.15,2013-03-11 03:30:00,
2013-03-10 22:31:00,53.1,32.3,30.02,NNW,346,1.0,3.0,45,0.00,,,0.68,Wunderground v.1.15,2013-03-11 03:31:00,
2013-03-10 22:33:00,53.1,32.3,30.02,NNW,346,1.0,3.0,45,0.00,,,0.68,Wunderground v.1.15,2013-03-11 03:33:00,
2013-03-10 22:38:00,52.8,32.6,30.02,NNW,346,1.0,3.0,46,0.00,,,0.68,Wunderground v.1.15,2013-03-11 03:38:00,
2013-03-10 22:39:00,52.8,32.6,30.02,NNW,346,1.0,3.0,46,0.00,,,0.68,Wunderground v.1.15,2013-03-11 03:39:00,
2013-03-10 22:40:00,52.8,33.1,30.02,NNW,346,1.0,3.0,47,0.00,,,0.68,Wunderground v.1.15,2013-03-11 03:40:00,
2013-03-10 22:41:00,52.6,32.9,30.02,NNW,346,0.0,3.0,47,0.00,,,0.68,Wunderground v.1.15,2013-03-11 03:41:00,
2013-03-10 22:43:00,52.6,32.4,30.02,NNW,346,0.0,3.0,46,0.00,,,0.68,Wunderground v.1.15,2013-03-11 03:43:00,
2013-03-10 22:48:00,52.3,32.1,30.03,NNW,346,0.0,3.0,46,0.00,,,0.68,Wunderground v.1.15,2013-03-11 03:48:00,
2013-03-10 22:49:00,52.3,32.6,30.03,NNW,346,0.0,3.0,47,0.00,,,0.68,Wunderground v.1.15,2013-03-11 03:49:00,
2013-03-10 22:50:00,52.2,32.0,30.03,NNW,346,0.0,3.0,46,0.00,,,0.68,Wunderground v.1.15,2013-03-11 03:50:00,
2013-03-10 22:53:00,52.2,32.0,30.03,NNW,346,1.0,2.0,46,0.00,,,0.68,Wunderground v.1.15,2013-03-11 03:53:00,
2013-03-10 22:54:00,52.2,32.0,30.03,NNW,346,1.0,2.0,46,0.00,,,0.68,Wunderground v.1.15,2013-03-11 03:54:00,
2013-03-10 22:59:00,52.0,31.8,30.03,NNW,346,1.0,2.0,46,0.00,,,0.68,Wunderground v.1.15,2013-03-11 03:59:00,
2013-03-10 23:00:00,52.0,32.4,30.05,NNW,346,1.0,1.0,47,0.00,,,0.68,Wunderground v.1.15,2013-03-11 04:00:00,
2013-03-10 23:01:00,52.0,32.4,30.05,NNW,346,1.0,3.0,47,0.00,,,0.68,Wunderground v.1.15,2013-03-11 04:01:00,
2013-03-10 23:04:00,51.9,32.3,30.05,NNW,346,0.0,3.0,47,0.00,,,0.68,Wunderground v.1.15,2013-03-11 04:04:00,
2013-03-10 23:05:00,51.9,32.8,30.05,NNW,346,0.0,3.0,48,0.00,,,0.68,Wunderground v.1.15,2013-03-11 04:05:00,
2013-03-10 23:06:00,51.9,32.8,30.05,NNW,346,0.0,3.0,48,0.00,,,0.68,Wunderground v.1.15,2013-03-11 04:06:00,
2013-03-10 23:07:00,51.7,32.6,30.05,NNW,346,0.0,3.0,48,0.00,,,0.68,Wunderground v.1.15,2013-03-11 04:07:00,
2013-03-10 23:09:00,51.7,32.6,30.05,NNW,346,0.0,3.0,48,0.00,,,0.68,Wunderground v.1.15,2013-03-11 04:09:00,
2013-03-10 23:11:00,51.6,32.5,30.05,NNW,346,0.0,2.0,48,0.00,,,0.68,Wunderground v.1.15,2013-03-11 04:11:00,
2013-03-10 23:12:00,51.6,32.5,30.05,NNW,346,0.0,2.0,48,0.00,,,0.68,Wunderground v.1.15,2013-03-11 04:12:00,
2013-03-10 23:16:00,51.3,32.8,30.05,NNW,346,0.0,2.0,49,0.00,,,0.68,Wunderground v.1.15,2013-03-11 04:16:00,
2013-03-10 23:17:00,51.3,32.8,30.05,NNW,346,0.0,2.0,49,0.00,,,0.68,Wunderground v.1.15,2013-03-11 04:17:00,
2013-03-10 23:19:00,51.1,32.6,30.05,NNW,346,0.0,2.0,49,0.00,,,0.68,Wunderground v.1.15,2013-03-11 04:19:00,
2013-03-10 23:22:00,51.0,33.0,30.05,NNW,346,0.0,1.0,50,0.00,,,0.68,Wunderground v.1.15,2013-03-11 04:22:00,
2013-03-10 23:25:00,50.8,32.8,30.05,NNW,346,0.0,1.0,50,0.00,,,0.68,Wunderground v.1.15,2013-03-11 04:25:00,
2013-03-10 23:26:00,50.8,32.8,30.05,NNW,346,0.0,1.0,50,0.00,,,0.68,Wunderground v.1.15,2013-03-11 04:26:00,
2013-03-10 23:28:00,50.7,32.7,30.05,NNW,346,0.0,2.0,50,0.00,,,0.68,Wunderground v.1.15,2013-03-11 04:28:00,
2013-03-10 23:30:00,50.7,32.7,30.05,NNW,346,0.0,2.0,50,0.00,,,0.68,Wunderground v.1.15,2013-03-11 04:30:00,
2013-03-10 23:33:00,50.5,32.5,30.06,NNW,346,0.0,2.0,50,0.00,,,0.68,Wunderground v.1.15,2013-03-11 04:33:00,
2013-03-10 23:35:00,50.5,32.5,30.06,NNW,346,1.0,2.0,50,0.00,,,0.68,Wunderground v.1.15,2013-03-11 04:35:00,
2013-03-10 23:36:00,50.4,32.4,30.06,NNW,346,1.0,2.0,50,0.00,,,0.68,Wunderground v.1.15,2013-03-11 04:36:00,
2013-03-10 23:37:00,50.4,31.9,30.06,NNW,346,1.0,2.0,49,0.00,,,0.68,Wunderground v.1.15,2013-03-11 04:37:00,
2013-03-10 23:38:00,50.4,31.9,30.06,NNW,346,1.0,2.0,49,0.00,,,0.68,Wunderground v.1.15,2013-03-11 04:38:00,
2013-03-10 23:41:00,50.4,31.9,30.06,NNW,346,2.0,5.0,49,0.00,,,0.68,Wunderground v.1.15,2013-03-11 04:41:00,
2013-03-10 23:43:00,50.5,32.0,30.06,NNW,346,2.0,5.0,49,0.00,,,0.68,Wunderground v.1.15,2013-03-11 04:43:00,
2013-03-10 23:45:00,50.5,32.0,30.06,NNW,344,2.0,5.0,49,0.00,,,0.68,Wunderground v.1.15,2013-03-11 04:45:00,
2013-03-10 23:46:00,50.5,32.0,30.06,NNW,346,2.0,5.0,49,0.00,,,0.68,Wunderground v.1.15,2013-03-11 04:46:00,
2013-03-10 23:52:00,50.4,32.4,30.06,NNW,346,1.0,5.0,50,0.00,,,0.68,Wunderground v.1.15,2013-03-11 04:52:00,
2013-03-10 23:57:00,50.2,32.3,30.06,NNW,346,1.0,5.0,50,0.00,,,0.68,Wunderground v.1.15,2013-03-11 04:57:00,
2013-03-10 23:58:00,50.2,32.3,30.06,NNW,344,1.0,5.0,50,0.00,,,0.68,Wunderground v.1.15,2013-03-11 04:58:00,